GFSNE_sfc_30mbdewp_000.txt.gz
Dewpoint
55 55 54 54 54 54 53 51 50 48 47 48 48 50 48 41 38 36 35 39 39 39 38 38 38 37 36 36 35 33 32 31 31 31 32 32 34 33
56 55 55 55 55 54 53 53 51 51 48 49 49 51 41 32 36 32 35 36 36 36 35 35 35 34 34 32 32 31 30 30 30 30 32 33 31 32
56 56 55 55 54 54 53 52 51 50 49 50 51 51 40 34 33 32 33 32 32 31 32 32 31 32 31 31 30 29 29 29 29 28 28 28 29 31
56 56 55 55 55 55 53 52 51 51 50 49 50 46 39 31 31 31 31 30 31 28 29 28 31 29 29 29 28 28 28 28 28 28 26 26 27 27
56 56 56 55 55 55 54 53 52 51 51 50 50 40 35 33 33 33 33 32 30 26 26 30 26 27 27 28 27 28 27 27 27 26 27 26 27 27
56 56 56 55 55 55 54 54 53 52 52 51 49 39 35 34 34 35 33 32 29 21 27 25 24 23 26 26 26 25 26 27 28 27 26 27 27 28
56 56 56 56 55 55 54 54 53 53 51 48 42 38 35 34 34 33 32 30 24 24 24 22 21 20 21 22 22 23 26 28 28 26 26 26 27 26
55 56 56 55 54 54 54 54 54 53 49 46 43 41 37 34 33 32 29 23 15 27 23 19 20 20 20 20 21 25 27 28 26 26 26 25 25 25
55 55 55 55 54 54 53 53 53 52 50 46 43 40 36 32 32 30 26 20 17 19 21 19 20 21 20 19 21 24 27 27 24 25 25 24 24 24
55 55 55 55 55 54 53 51 51 48 43 43 42 36 33 32 31 26 22 20 21 19 23 22 18 17 19 19 19 23 26 24 24 24 23 23 23 24
54 55 55 55 55 53 52 46 40 36 34 35 34 33 32 29 23 21 24 22 17 15 22 22 18 18 17 16 18 20 21 21 22 22 23 22 23 24
54 54 54 55 55 51 50 42 39 35 33 32 32 30 28 27 24 23 25 22 20 13 21 20 18 18 16 15 16 15 14 14 17 19 20 22 23 23
52 53 53 53 52 49 48 43 42 34 33 32 30 28 27 26 25 24 26 25 22 21 21 22 22 20 18 16 14 14 13 12 12 14 16 18 19 22
51 51 52 50 48 47 45 43 39 35 32 29 26 24 24 24 26 26 27 26 25 24 23 24 21 20 19 17 12 11 12 13 13 13 14 16 18 19
49 51 50 48 46 45 43 40 37 31 27 23 21 22 24 26 25 25 26 26 26 25 24 24 23 22 21 19 16 15 14 12 12 13 12 14 15 16
46 46 46 45 43 40 39 37 30 29 25 21 21 22 24 23 23 24 23 22 20 20 23 25 24 22 20 19 17 15 14 12 11 12 13 14 15 16
41 42 41 38 37 37 33 29 29 28 22 20 20 20 19 21 22 23 22 20 19 18 20 21 23 22 21 21 17 16 15 12 12 13 14 14 15 16
40 39 36 35 35 32 29 29 27 24 22 22 20 18 19 22 21 21 20 20 19 18 19 20 19 18 17 17 20 16 13 11 12 13 14 15 16 17
40 38 35 35 34 31 31 28 25 23 23 22 21 22 23 23 22 19 19 19 18 19 20 20 18 17 13 11 10 20 15 12 12 13 14 15 17 18
39 37 35 35 33 32 30 27 24 23 24 22 23 24 23 22 20 19 18 19 18 20 19 19 19 17 15 13 13 11 12 12 13 14 16 17 18 20
36 36 35 33 32 31 28 26 25 25 24 23 23 23 23 21 19 18 19 19 19 19 17 16 18 18 17 14 13 13 14 16 16 16 17 18 19 19
35 34 33 32 31 29 28 27 26 25 24 23 22 22 21 20 18 18 18 18 18 17 17 17 17 17 16 14 13 13 16 18 20 20 20 20 20 18
34 34 32 31 30 29 28 27 26 24 24 23 21 21 20 19 18 18 18 18 17 15 15 12 14 14 14 14 14 15 19 19 19 20 20 21 25 28

GFSNE_sfc_30mbdewp_006.txt.gz
Dewpoint
59 59 59 58 57 56 55 54 52 49 49 50 49 50 50 50 50 50 48 48 48 49 49 47 47 44 42 41 40 39 38 36 34 33 34 34 34 33
58 58 59 59 58 57 55 54 54 52 50 51 51 51 51 51 51 48 45 45 46 47 47 46 44 42 40 39 38 36 35 33 33 33 33 33 33 32
57 57 57 58 57 56 56 55 54 53 52 52 53 53 51 50 47 42 42 42 44 46 45 43 41 40 38 37 35 33 33 32 32 32 32 32 32 31
53 55 54 55 56 57 56 55 54 54 53 52 52 53 50 46 44 42 41 40 41 43 42 40 39 37 35 35 32 32 32 31 31 31 30 30 30 30
50 51 52 54 54 54 56 55 54 54 54 53 52 53 49 43 41 41 40 38 37 38 39 37 36 34 35 31 31 32 31 31 30 30 29 29 29 30
49 50 51 52 53 54 54 55 55 55 54 53 53 52 45 41 42 41 38 38 36 36 36 33 33 33 32 31 30 29 30 30 30 29 29 29 29 28
46 47 48 50 51 53 54 54 55 55 54 53 52 49 43 40 41 41 41 38 38 33 28 27 29 29 28 28 29 29 29 28 29 29 29 29 29 28
45 46 47 49 50 51 53 53 54 54 53 52 52 50 47 46 44 42 41 37 34 31 27 26 25 25 26 24 25 25 25 26 27 29 29 29 28 27
44 45 46 48 49 51 52 53 54 53 54 54 53 52 50 48 44 42 41 38 34 28 26 22 23 22 23 23 25 25 25 26 27 28 29 28 27 27
42 43 45 46 48 49 50 51 51 53 54 53 54 54 52 50 46 44 41 33 28 28 25 13 23 21 23 24 25 24 25 25 26 28 28 26 26 26
40 41 41 43 43 47 48 49 48 51 49 50 53 53 53 49 44 38 34 32 25 22 23 20 20 20 20 20 21 22 22 24 26 26 25 24 25 26
35 36 40 41 42 43 45 46 47 48 45 42 43 44 44 44 42 40 33 31 28 26 25 20 20 19 15 20 19 20 20 23 20 20 20 21 22 23
29 31 35 39 41 41 42 43 44 48 43 40 36 34 34 33 33 33 34 32 27 23 26 23 22 22 19 19 19 18 18 17 18 19 19 18 19 21
30 30 34 37 39 40 42 43 45 46 39 35 32 31 30 30 31 31 31 30 28 25 27 23 21 21 19 18 16 17 17 17 18 17 17 18 18 19
30 32 35 38 39 41 41 42 44 42 36 32 32 31 30 30 30 29 29 29 28 28 26 23 20 21 19 17 17 19 19 19 19 20 18 17 15 16
31 34 38 40 42 42 42 43 42 37 35 33 32 31 30 28 27 27 25 25 24 24 26 25 23 22 21 21 20 19 19 19 19 19 17 17 17 17
33 35 37 36 37 38 37 34 34 35 33 31 29 28 27 27 26 26 25 25 23 23 23 24 25 24 22 20 20 20 20 20 19 19 17 14 15 16
31 33 34 33 34 35 34 31 32 30 29 29 28 27 26 26 25 26 26 24 21 21 22 23 22 19 17 18 23 20 20 20 20 17 15 14 13 15
28 31 32 32 32 33 32 31 30 29 29 28 27 26 26 25 25 25 24 21 21 20 20 20 18 16 13 7 14 22 22 21 20 18 16 13 14 15
27 28 31 32 31 31 31 30 28 27 27 27 26 26 26 25 24 24 22 20 20 20 20 19 18 16 16 12 14 15 16 14 13 14 15 16 17 20
25 27 30 32 31 31 31 29 28 27 27 26 26 26 26 25 24 22 21 21 20 19 17 18 18 20 16 14 11 11 14 18 19 19 21 22 21 21
24 27 31 32 31 31 29 28 27 28 26 27 26 26 26 26 22 21 21 20 20 18 16 16 16 16 16 16 13 15 16 18 20 23 27 28 24 20
25 28 30 31 31 31 29 28 28 27 27 26 26 26 26 22 21 21 20 20 18 15 16 13 14 14 15 15 17 18 18 20 23 23 23 26 28 29

GFSNE_sfc_30mbdewp_009.txt.gz
Dewpoint
57 58 58 58 59 58 57 56 54 51 49 49 49 51 51 50 50 50 50 50 53 54 54 54 55 55 52 51 48 46 45 43 42 39 37 35 36 36
54 56 55 57 58 58 57 57 56 54 51 52 51 51 52 51 51 50 50 51 52 54 53 53 53 52 50 48 45 43 42 41 39 36 35 35 35 35
48 50 51 53 54 55 56 56 56 55 53 53 53 53 53 52 52 52 51 50 50 52 52 52 52 51 48 45 44 41 40 38 36 35 34 34 34 34
46 48 49 50 51 52 53 54 55 55 54 52 53 53 53 53 52 50 49 48 48 49 50 51 50 49 46 44 41 40 37 35 34 33 33 33 33 33
45 45 46 47 48 48 50 51 53 53 54 54 53 54 53 48 46 45 45 45 45 46 49 50 48 47 44 42 39 38 35 34 33 32 32 31 31 31
45 45 45 46 46 47 48 49 50 51 52 52 53 53 53 46 47 47 43 43 43 43 46 47 46 44 43 40 38 34 34 33 33 32 32 30 30 30
43 42 43 45 45 46 48 49 50 50 49 50 50 51 51 44 44 46 46 45 42 41 41 43 42 41 39 38 37 35 32 32 32 32 31 31 30 30
35 39 41 43 43 45 47 48 50 50 49 49 48 49 49 49 48 47 45 40 38 39 38 37 37 36 34 35 34 32 31 31 31 30 30 30 30 30
36 36 38 38 37 40 41 43 45 47 49 49 49 49 50 51 50 47 46 43 42 38 37 34 33 32 32 31 31 28 27 28 28 29 29 30 30 29
34 34 36 30 33 38 40 41 41 43 44 48 48 50 51 53 52 49 47 42 33 34 36 31 30 30 30 28 28 27 27 28 28 28 29 29 29 28
31 33 28 28 31 35 36 38 38 39 41 43 47 48 49 51 53 44 40 37 32 30 30 28 28 28 27 25 24 27 27 27 27 27 28 28 28 27
31 30 29 28 30 33 35 35 36 37 38 40 43 45 45 47 50 48 43 39 32 29 29 27 26 26 21 24 21 20 23 24 25 28 27 25 24 24
30 30 29 29 32 34 37 38 39 40 41 42 43 40 37 37 37 38 39 39 33 32 30 29 26 24 18 19 19 19 19 19 19 20 22 22 21 21
28 29 28 30 33 36 39 41 42 42 42 41 39 35 33 32 32 32 32 32 32 32 32 29 26 23 19 18 14 18 17 17 17 16 16 19 21 21
27 28 31 32 34 36 35 37 39 38 39 39 35 32 32 32 31 29 29 30 30 30 28 27 23 21 17 14 15 17 16 18 19 18 19 19 17 16
27 29 30 29 33 34 34 35 35 34 35 34 32 31 31 29 28 28 26 27 26 25 26 23 21 19 18 18 18 17 19 15 19 19 18 17 18 18
26 28 27 27 29 30 32 33 34 33 32 31 30 29 28 27 25 26 26 26 23 22 23 25 24 22 20 18 18 19 19 19 20 20 19 17 17 17
25 24 24 26 29 30 31 31 32 31 30 30 29 28 26 25 25 25 25 25 23 22 22 23 23 20 15 15 23 20 19 19 19 19 19 17 15 15
22 23 24 26 27 30 30 30 30 31 29 29 28 27 26 25 25 24 25 24 22 21 20 19 18 15 6 -4 11 23 19 20 21 20 19 18 16 15
22 24 25 26 28 29 30 30 30 28 27 27 27 26 26 26 25 24 24 22 20 20 19 18 17 14 10 6 13 12 20 17 13 12 13 16 17 19
22 24 25 25 28 29 30 30 28 27 27 26 26 26 26 25 24 24 22 21 20 19 18 18 18 20 13 13 12 11 13 17 18 17 18 19 19 20
23 24 24 26 27 28 30 29 27 27 26 26 26 26 26 26 24 22 21 21 19 18 16 15 15 15 15 15 12 13 15 17 20 22 25 25 23 20
21 23 26 23 24 27 29 29 27 26 26 26 26 26 26 24 22 21 21 19 18 16 14 12 13 12 14 14 15 17 17 19 21 22 23 25 28 28

GFSNE_sfc_30mbdewp_012.txt.gz
Dewpoint
48 50 53 53 54 55 55 56 55 52 51 53 53 52 51 51 51 51 51 50 51 52 52 53 53 55 55 55 56 56 56 54 52 49 47 45 43 40
45 46 48 49 51 53 54 54 54 53 50 51 53 54 53 52 52 52 51 51 51 52 52 53 53 54 54 55 55 55 54 52 49 47 46 43 41 37
41 44 45 46 47 48 49 50 50 51 50 50 52 53 54 54 53 52 52 51 51 51 52 53 53 54 54 55 55 53 51 49 47 45 43 41 37 37
40 43 44 45 45 46 46 47 47 48 49 48 49 50 52 54 54 54 52 52 52 52 53 52 53 54 54 54 53 51 49 47 45 44 40 37 36 37
42 44 43 42 40 42 45 45 45 46 47 48 47 48 50 52 53 52 53 52 52 52 51 52 53 54 54 53 51 49 48 46 43 40 37 36 36 35
41 35 34 37 38 41 42 43 44 46 46 46 46 46 47 49 51 51 50 47 48 48 48 49 52 53 53 52 49 47 46 43 41 38 35 34 34 33
29 27 32 37 38 41 39 33 38 42 41 42 44 45 46 47 46 47 48 48 47 47 46 46 49 50 50 49 47 45 44 41 40 38 35 34 33 32
25 24 29 33 35 35 28 32 37 39 40 41 41 42 43 46 47 47 48 47 45 43 43 43 45 45 46 46 44 44 41 40 39 36 34 33 33 32
24 24 25 30 35 29 28 30 33 34 36 38 38 39 40 42 46 46 47 47 46 42 42 40 40 41 40 41 43 41 40 38 36 34 33 32 32 31
25 25 27 32 31 31 30 30 31 32 35 36 38 38 39 41 43 45 46 48 40 39 41 37 34 36 34 37 41 40 38 36 35 34 33 32 31 31
24 26 30 30 30 30 29 29 30 32 35 38 39 40 41 42 43 44 43 40 39 34 36 33 30 29 31 32 36 38 37 35 34 31 31 30 30 30
25 30 28 26 27 28 28 29 31 33 36 38 40 41 41 41 42 44 43 42 40 32 32 33 29 28 27 28 30 32 35 34 32 30 30 30 30 29
25 26 25 26 27 28 30 31 35 36 36 37 38 40 41 42 37 36 37 42 42 35 32 32 28 26 26 24 26 29 29 25 27 28 28 29 29 28
27 24 25 27 28 29 28 32 34 34 35 34 34 36 38 36 33 32 32 33 34 34 34 32 27 26 24 22 22 22 19 19 21 21 20 22 25 25
24 25 24 25 25 27 28 30 32 32 32 31 32 33 33 33 31 29 29 29 28 28 28 28 27 26 25 23 19 17 16 17 17 16 16 16 17 18
26 23 24 23 23 24 27 29 29 32 32 31 31 32 31 29 27 28 27 27 25 23 26 26 25 23 19 18 17 18 17 11 18 18 18 18 18 17
21 23 20 21 22 24 26 27 28 31 31 31 30 29 28 26 26 27 27 26 23 22 22 23 24 22 19 18 14 16 16 17 18 19 19 17 17 17
20 20 21 21 22 24 25 26 27 29 30 29 29 28 27 25 25 25 26 24 23 22 21 22 22 17 11 15 21 17 19 18 18 19 19 17 16 17
19 21 21 21 22 24 25 26 27 29 30 28 27 27 26 25 25 24 25 24 22 20 19 19 17 10 -3 -9 10 23 17 18 19 19 19 19 17 16
20 19 20 20 22 24 24 25 26 29 28 27 26 26 26 25 24 24 24 22 20 20 18 16 16 11 5 1 9 12 23 21 19 15 12 16 18 19
20 20 20 20 24 23 22 25 26 28 28 27 26 26 25 25 24 24 24 21 20 18 18 17 16 18 12 13 11 10 12 17 18 14 15 16 18 21
20 20 20 21 23 22 22 24 26 27 26 26 25 25 26 25 24 23 22 20 18 17 16 14 13 15 15 14 10 12 14 16 19 21 23 21 21 19
21 21 20 22 22 21 22 24 26 27 26 26 25 25 25 23 22 21 21 18 16 14 12 12 12 12 14 14 14 15 16 17 19 21 23 25 26 25

GFSNE_sfc_30mbdewp_015.txt.gz
Dewpoint
45 46 44 45 48 48 49 50 48 44 44 46 48 52 55 55 54 53 53 53 53 51 52 53 54 54 54 54 55 56 56 56 56 57 57 54 52 51
38 40 42 44 46 46 46 46 46 46 44 45 46 48 51 53 55 54 53 52 53 53 53 53 53 54 54 54 54 55 55 56 55 56 57 54 52 50
36 39 41 44 44 42 40 41 42 44 43 43 44 46 47 49 51 54 54 54 53 52 53 54 54 54 54 54 54 54 55 55 55 55 56 54 52 49
36 39 42 36 33 34 37 37 41 42 42 40 42 43 44 47 49 50 51 53 54 53 53 53 53 53 54 54 54 54 54 55 55 55 55 53 50 48
37 37 28 28 29 34 34 35 40 40 31 34 39 42 43 46 47 48 49 51 53 54 53 53 54 54 54 55 54 54 54 54 54 54 53 51 49 46
25 26 26 25 26 31 33 36 32 29 32 36 35 36 38 40 43 45 46 47 49 51 51 52 52 52 53 54 54 54 54 54 53 51 50 48 45 43
18 15 18 25 27 24 28 35 32 30 30 31 31 32 34 37 37 41 42 43 45 48 48 49 49 49 50 52 53 53 53 52 50 49 47 45 43 41
16 19 25 24 23 29 32 31 31 31 30 30 30 29 31 33 36 38 39 40 40 44 47 47 48 46 48 50 51 52 50 49 48 46 44 42 40 39
20 22 23 24 27 31 29 28 30 30 29 30 29 30 32 33 36 36 37 37 38 43 44 44 45 44 46 46 49 49 47 46 45 44 42 40 39 37
22 23 24 26 28 26 25 26 27 28 28 29 30 33 35 37 38 38 38 38 39 41 43 40 42 41 39 41 46 47 45 44 43 42 41 39 38 37
24 25 26 25 25 24 25 26 27 26 29 31 35 36 36 37 39 40 39 37 36 38 40 41 38 33 33 35 42 45 43 42 41 40 39 39 38 36
27 29 26 24 23 25 25 27 30 32 32 35 34 33 34 34 36 39 40 38 37 37 37 37 32 30 29 29 33 41 41 40 39 38 38 38 36 34
29 24 24 24 25 24 23 27 29 31 33 33 30 30 30 32 36 37 37 37 36 35 39 36 30 29 28 24 28 30 32 34 35 37 38 37 34 31
23 24 27 23 22 22 22 22 25 29 29 29 30 30 29 32 33 34 33 32 32 31 36 34 30 28 25 23 23 26 28 29 31 32 33 34 33 33
24 29 22 21 21 21 21 24 26 26 28 28 29 29 30 32 32 30 29 28 27 26 27 29 29 27 27 24 21 22 24 24 26 26 25 27 25 23
31 21 19 19 20 20 22 23 25 25 27 28 29 30 30 30 28 28 27 26 24 23 25 26 26 26 23 23 24 23 23 22 23 22 20 18 18 18
21 20 18 19 19 19 20 21 23 24 27 27 29 27 27 28 26 27 27 26 23 21 21 23 23 23 22 21 21 21 19 18 19 18 17 16 17 17
19 18 18 18 19 19 19 21 23 23 25 26 28 27 26 26 25 26 26 24 22 21 21 22 21 17 12 17 18 16 16 16 18 18 17 15 14 17
19 19 19 19 19 19 20 22 21 23 25 26 28 26 26 25 26 25 25 23 21 20 18 18 15 5 -4 -3 13 20 15 17 17 18 18 17 15 16
20 19 19 20 19 19 20 21 22 22 23 27 26 26 25 25 24 24 23 21 20 19 18 16 13 11 2 1 4 16 22 19 18 18 18 19 19 19
19 18 19 20 19 20 21 21 22 22 24 26 26 25 25 25 24 24 24 22 20 18 16 16 14 16 11 11 9 10 12 22 21 15 13 13 17 19
18 19 19 20 19 20 21 21 21 21 23 26 25 25 25 25 24 23 22 19 18 17 16 14 13 14 14 11 11 12 14 16 19 21 18 20 19 18
19 20 19 19 20 20 21 20 21 22 24 25 25 24 24 22 22 21 18 16 14 12 12 13 12 11 12 13 14 15 17 17 19 20 23 25 25 28

GFSNE_sfc_30mbdewp_018.txt.gz
Dewpoint
36 37 38 40 42 45 45 43 40 36 35 37 39 43 46 48 49 50 52 54 54 54 54 54 55 55 57 56 57 57 57 57 57 57 58 58 57 58
24 34 36 39 41 41 35 36 37 36 34 33 36 38 40 43 45 46 48 50 52 54 54 54 55 55 55 55 56 56 56 56 56 57 56 57 57 57
26 28 37 37 29 30 30 35 34 31 32 34 36 36 27 33 41 46 47 48 49 50 53 54 54 54 54 54 54 55 56 57 56 57 57 56 56 57
25 29 26 25 26 26 29 27 29 32 34 33 31 31 30 36 37 37 39 43 46 49 50 51 53 54 54 54 54 54 54 55 56 56 56 56 56 58
28 23 19 17 16 22 25 25 27 30 34 32 29 30 32 33 36 35 37 40 44 46 48 50 50 51 52 54 54 54 54 54 54 55 56 56 55 57
23 19 17 17 22 25 23 25 28 31 30 29 30 29 29 31 33 33 33 36 37 40 43 44 48 50 51 51 53 53 53 54 54 54 54 55 55 56
19 20 20 22 24 24 25 27 28 27 27 27 28 29 27 27 27 28 31 32 34 37 39 41 43 46 48 49 50 50 51 52 52 53 54 55 55 56
21 22 22 23 23 26 26 26 25 25 24 25 26 26 25 25 27 28 31 32 31 35 37 38 39 43 46 48 48 49 50 51 52 53 53 54 53 51
22 22 23 23 26 27 26 26 26 25 26 26 26 26 28 29 29 29 33 34 33 35 35 35 38 38 41 46 47 48 49 49 52 52 52 50 48 47
23 24 24 27 28 24 24 27 29 30 26 27 29 30 32 33 35 35 33 34 37 37 37 35 37 38 41 43 44 45 46 47 48 50 48 46 45 44
24 24 28 25 22 24 30 28 25 26 27 26 28 30 31 32 31 32 32 32 31 34 38 38 38 38 36 36 38 42 45 47 47 45 44 43 42 41
24 29 23 21 24 26 21 22 25 21 23 28 31 29 28 28 29 30 32 30 31 30 36 38 38 35 34 30 33 37 45 46 45 43 42 41 40 37
27 21 21 23 31 20 20 21 21 22 28 28 25 27 27 29 30 32 34 32 30 28 32 35 34 32 32 29 29 31 40 42 41 41 40 39 38 36
21 21 24 29 20 19 20 21 21 23 23 24 25 26 26 28 29 29 31 32 30 27 28 28 30 31 28 25 27 28 30 32 35 34 36 38 38 37
22 27 25 20 18 19 19 19 20 20 23 24 24 24 25 27 29 28 30 30 29 26 25 26 29 28 28 26 23 24 26 27 31 31 34 36 36 35
29 25 20 17 18 18 18 18 19 20 23 24 23 25 25 27 26 27 27 27 25 24 25 26 25 26 24 25 26 24 25 25 27 29 28 27 28 31
18 17 17 17 17 17 17 18 18 20 23 23 23 23 23 27 25 28 26 26 23 22 21 23 24 24 24 25 22 23 23 23 24 24 26 23 23 22
15 17 18 17 16 17 18 18 18 19 22 22 22 22 24 25 25 26 26 24 22 21 20 20 21 20 19 22 24 21 20 20 21 22 22 20 18 17
16 19 17 17 17 18 18 18 18 21 23 22 22 23 25 25 25 24 24 23 20 19 18 17 15 10 4 11 18 20 17 18 18 17 16 14 14 15
17 18 17 18 18 18 18 18 20 21 21 21 22 24 25 24 24 23 22 21 20 19 17 16 16 14 5 4 12 19 20 17 16 16 17 18 18 19
17 17 18 18 19 18 18 19 20 20 21 21 22 24 24 24 24 24 24 23 20 18 14 13 13 17 11 10 10 11 16 22 18 16 16 15 15 18
18 18 18 19 18 18 19 20 20 20 20 21 24 24 24 24 23 22 21 19 18 16 15 13 12 13 13 12 13 13 15 16 20 19 18 20 19 18
19 19 19 18 19 19 20 19 19 19 20 22 24 23 23 22 21 19 17 14 13 13 13 14 13 12 12 14 15 15 16 18 20 21 23 23 28 31

GFSNE_sfc_30mbdewp_021.txt.gz
Dewpoint
22 23 27 32 37 37 36 31 31 28 29 29 27 27 30 35 39 36 33 33 43 47 49 49 51 52 54 55 56 57 58 58 59 59 59 59 58 58
19 23 28 30 29 29 29 27 27 29 29 26 24 24 29 35 34 32 31 41 36 34 37 44 48 50 52 53 55 55 55 56 57 58 58 59 59 58
21 23 28 23 21 21 19 23 27 25 24 24 27 27 33 31 30 30 33 33 36 38 37 44 45 47 49 50 52 53 54 55 56 56 58 58 58 58
20 24 23 19 18 17 18 22 25 25 26 26 26 33 28 28 30 31 32 33 34 36 37 42 39 42 46 49 51 51 52 54 55 55 56 56 58 58
20 21 19 19 19 20 23 24 26 26 28 30 27 26 27 27 28 28 29 31 32 34 34 36 37 40 41 43 46 49 51 52 54 54 54 55 55 56
21 20 20 20 20 23 23 25 26 27 28 27 28 26 25 25 27 26 25 28 29 30 31 33 35 37 40 42 44 47 50 51 53 53 53 53 54 54
21 21 21 22 24 24 24 25 26 26 29 27 25 25 26 26 25 25 25 26 28 29 30 32 34 37 41 39 39 45 48 49 50 50 51 53 53 53
21 22 22 23 23 24 27 24 24 24 26 28 27 25 24 23 25 27 28 28 28 31 32 34 33 34 35 37 39 40 42 47 48 50 50 50 51 51
21 22 23 23 25 29 25 23 27 30 24 24 25 27 27 26 27 30 30 30 31 34 33 30 33 34 36 37 38 39 41 44 46 47 48 49 50 52
21 22 23 25 26 22 23 31 27 21 21 25 24 23 24 28 30 32 32 32 31 32 32 31 32 34 36 38 39 40 42 44 45 46 46 47 49 50
21 22 26 22 20 23 31 27 20 21 22 22 23 25 26 26 26 29 29 28 27 27 29 32 34 33 34 39 40 41 42 42 43 44 46 46 48 48
23 25 21 19 20 30 22 20 20 20 23 24 24 24 24 25 25 28 30 28 27 26 29 30 30 30 31 34 34 34 36 38 40 42 46 46 44 42
26 21 19 21 32 21 19 19 20 20 21 21 21 22 23 24 25 28 30 30 27 26 28 30 29 29 31 32 32 33 33 40 45 46 44 43 41 39
21 20 24 27 18 18 18 19 19 20 19 20 20 21 22 23 24 26 27 31 31 29 31 28 25 26 27 29 29 30 30 36 41 40 39 39 38 38
21 25 20 16 16 17 17 18 18 18 20 20 21 21 22 23 24 25 26 29 31 30 29 26 25 25 27 28 27 27 29 29 35 36 35 34 34 35
28 17 15 15 17 16 16 17 18 18 20 21 21 22 23 22 22 24 27 27 27 27 27 26 26 26 27 29 29 27 27 28 31 30 30 34 34 35
16 15 14 16 17 15 16 17 17 18 20 21 21 21 21 22 22 27 27 27 24 22 22 24 26 27 26 28 24 26 26 26 29 29 28 26 28 33
15 15 15 16 16 16 16 17 18 18 20 20 21 21 21 22 24 26 27 24 22 21 20 20 20 22 24 24 26 23 23 23 26 28 28 25 23 27
15 16 16 16 16 17 17 18 18 20 21 21 21 21 21 24 25 25 24 23 21 20 18 18 17 18 20 17 21 25 22 23 24 24 25 25 24 24
16 17 17 17 17 17 18 19 19 19 20 21 21 21 24 24 24 24 23 21 20 19 17 17 17 15 15 16 17 20 20 23 23 20 19 19 19 20
17 17 16 17 17 18 18 19 19 19 20 20 20 23 23 23 23 23 22 21 20 18 16 15 15 18 14 15 15 17 22 20 18 18 17 15 15 16
16 17 17 18 18 18 19 19 19 19 19 20 21 24 23 22 20 19 16 15 15 15 15 16 17 18 18 16 14 16 19 21 19 19 21 20 19 16
18 18 18 18 18 19 19 19 19 19 20 20 22 23 22 19 17 15 17 20 21 20 19 19 18 18 17 19 18 18 19 20 20 22 24 29 30 27

GFSNE_sfc_30mbdewp_024.txt.gz
Dewpoint
15 17 19 20 26 26 24 22 22 20 18 19 20 20 16 18 23 25 31 33 31 31 31 36 34 37 41 44 46 49 51 53 54 54 55 56 57 60
14 16 18 20 24 22 19 17 16 16 19 22 23 21 22 23 25 32 30 30 29 29 30 35 37 36 39 44 45 47 49 51 52 52 54 55 56 55
16 16 17 19 19 17 17 16 17 18 21 23 24 24 23 23 25 23 24 24 26 26 28 30 32 34 39 41 41 43 47 49 50 51 52 54 55 55
16 16 17 17 17 16 17 17 19 20 22 24 25 23 24 23 24 23 22 22 24 24 25 27 29 32 33 37 39 42 43 44 47 50 51 52 54 55
16 17 18 18 17 17 18 20 21 22 25 25 24 25 25 24 23 23 24 24 23 24 23 24 26 29 31 34 36 39 41 43 47 49 50 52 53 54
18 19 18 18 18 19 20 20 22 26 25 23 24 24 25 25 24 24 24 24 24 25 26 27 29 30 31 32 35 38 40 40 44 48 50 51 53 53
19 17 17 19 21 22 22 24 26 25 25 25 25 26 23 21 22 23 24 24 24 26 28 29 29 32 33 34 35 34 37 38 42 42 47 50 51 52
17 17 17 18 18 22 23 22 22 24 27 29 26 24 20 21 24 22 23 23 24 26 26 28 31 32 32 33 33 36 36 37 39 40 42 46 50 50
17 16 16 16 21 23 21 20 22 27 28 24 21 21 22 23 23 24 26 28 29 29 29 27 28 30 32 33 34 35 36 38 40 40 42 45 47 47
16 17 17 20 22 19 20 24 31 23 20 19 20 21 25 27 28 29 29 28 28 28 29 29 30 29 31 32 33 34 37 40 40 41 43 45 45 45
16 17 22 20 18 19 27 26 21 20 18 18 22 22 22 22 23 25 26 26 24 25 27 29 28 30 33 32 32 31 37 39 41 42 43 44 44 45
19 22 19 18 19 25 23 19 20 19 20 24 21 20 20 21 22 24 28 25 24 24 25 28 27 28 26 28 34 35 35 37 38 39 40 42 43 44
24 20 18 19 25 19 17 18 17 19 20 20 19 20 21 22 23 24 26 27 24 24 25 28 28 27 28 26 27 30 33 35 35 38 41 43 45 44
21 20 21 25 17 16 17 17 18 18 19 19 20 20 21 21 22 24 25 25 27 27 28 30 27 27 25 24 24 28 33 33 34 40 42 44 44 43
19 22 24 16 15 15 16 16 16 17 19 20 20 20 21 22 24 24 26 26 28 30 31 30 27 25 25 23 24 28 31 31 36 34 34 36 37 39
24 25 15 14 14 14 14 15 16 18 20 22 21 22 22 23 23 25 25 26 28 28 29 28 27 26 25 25 27 29 29 28 31 32 32 32 33 33
22 16 13 13 14 14 15 16 17 19 21 21 21 21 21 22 23 25 26 27 24 23 23 25 27 27 28 28 28 30 29 28 31 31 31 30 31 32
16 13 13 15 15 15 15 16 19 20 21 21 21 21 21 21 23 26 26 25 23 22 20 21 20 22 26 26 28 26 27 27 29 31 31 29 29 31
14 15 15 16 16 16 16 18 19 20 21 21 21 21 21 23 25 25 25 23 20 20 19 19 19 22 22 18 23 27 25 27 28 28 29 27 27 31
15 16 16 16 16 17 19 19 19 20 20 21 21 21 23 23 23 22 22 21 20 19 18 19 17 17 19 19 19 23 27 27 25 25 24 26 28 33
16 15 16 17 17 18 20 20 20 19 20 20 21 22 24 23 21 19 17 18 17 17 18 19 19 19 18 20 21 21 24 28 27 25 26 24 23 24
16 17 17 17 18 20 20 20 19 19 19 20 21 23 23 21 19 20 21 22 22 22 22 23 22 22 20 17 18 19 20 25 27 24 25 23 20 18
17 17 18 18 19 20 20 19 19 19 20 21 22 23 23 22 22 19 20 23 24 23 22 23 23 21 20 20 19 19 20 19 21 25 27 30 26 21

GFSNE_sfc_30mbdewp_027.txt.gz
Dewpoint
15 17 17 19 21 21 25 25 22 18 17 17 17 19 23 22 22 25 23 27 25 27 28 27 27 30 31 35 38 37 37 39 42 46 47 50 52 54
14 16 17 18 19 21 22 21 20 19 17 18 19 21 22 24 24 25 24 28 24 24 25 26 28 28 29 30 32 34 35 38 42 41 44 48 50 52
14 16 17 18 19 19 20 19 20 20 19 20 21 23 24 24 23 24 25 25 25 23 23 24 25 26 26 27 29 32 34 36 38 40 44 46 49 50
15 16 17 17 19 19 19 19 20 20 20 20 22 24 23 22 23 24 24 24 24 24 23 23 25 24 25 26 28 30 32 33 36 39 41 44 46 49
16 17 18 19 18 18 19 20 21 22 24 25 24 23 23 24 25 26 23 20 21 23 23 22 23 25 28 28 29 31 34 34 35 37 41 43 45 47
18 19 19 18 17 18 20 21 24 25 26 25 24 24 25 25 26 22 19 21 23 24 22 21 23 24 25 27 29 32 35 36 36 33 40 41 45 48
19 18 17 19 18 19 19 22 23 27 24 24 25 26 28 24 21 20 20 21 22 22 23 24 25 29 30 29 30 32 32 34 34 35 35 37 40 42
18 17 17 17 17 18 21 21 23 21 21 27 28 27 22 19 20 20 21 21 21 23 25 26 26 25 26 28 28 29 30 31 32 34 35 36 40 42
17 16 16 16 19 22 23 21 23 24 29 20 20 21 19 19 20 24 25 25 23 24 25 24 27 27 29 29 29 27 28 32 33 33 36 39 41 42
17 17 17 19 23 21 20 26 28 25 20 19 18 18 21 24 26 25 26 26 25 25 25 25 25 28 26 29 30 31 32 31 33 35 36 39 42 42
18 18 20 21 20 20 25 28 22 19 19 18 20 21 20 21 21 21 24 23 21 22 24 23 24 26 27 28 27 28 31 37 37 39 39 41 42 44
20 24 21 19 20 25 23 18 19 17 21 21 19 19 19 19 20 21 24 23 22 21 21 23 24 25 23 26 29 30 29 29 32 37 36 40 41 41
25 22 20 19 26 21 17 16 16 19 18 18 18 19 20 21 21 22 23 25 23 22 23 24 25 25 25 25 25 26 27 29 35 34 35 36 38 40
22 21 19 28 18 16 15 15 17 17 17 19 20 19 20 20 22 23 23 25 26 26 27 28 25 25 24 24 22 24 26 30 34 33 36 40 42 41
19 20 27 16 15 14 14 15 16 16 19 21 20 20 21 23 24 24 25 25 27 28 29 30 28 26 25 22 21 22 25 31 32 32 35 37 40 42
25 26 16 14 14 14 15 15 16 18 22 21 21 21 22 22 23 24 24 25 26 26 27 30 28 27 24 25 25 24 27 28 31 32 32 32 35 37
19 17 14 13 14 15 15 15 17 20 21 21 20 20 21 22 22 24 27 26 24 22 21 23 25 25 25 27 27 30 29 30 31 31 32 31 31 35
15 13 13 15 15 15 15 18 20 20 20 20 20 20 21 21 22 23 24 23 22 22 21 21 21 22 25 27 28 27 29 29 31 31 32 30 30 33
14 15 15 16 16 16 18 20 19 20 21 20 20 20 20 21 22 22 21 21 21 21 22 22 20 19 21 18 24 29 27 29 29 29 31 31 30 32
15 16 16 16 16 18 20 20 19 19 19 20 20 21 22 23 22 22 22 22 23 22 22 22 19 19 18 19 21 25 30 28 27 27 29 31 32 35
16 17 16 16 18 20 20 20 20 19 20 20 21 22 23 24 22 22 22 23 25 24 22 22 22 22 21 24 21 23 27 30 30 28 26 27 28 29
17 16 17 18 20 20 20 20 19 19 20 21 21 23 24 23 22 23 23 23 24 25 24 25 24 23 21 22 20 23 25 27 31 31 29 27 25 24
16 17 18 19 20 20 20 19 19 19 21 22 23 24 22 22 24 25 25 25 26 26 25 25 23 22 21 21 21 22 25 25 27 26 26 24 27 31

GFSNE_sfc_30mbdewp_030.txt.gz
Dewpoint
13 15 16 18 20 21 21 21 20 20 18 18 18 19 20 21 22 23 23 24 24 23 26 25 26 27 27 26 27 29 30 31 33 35 36 37 43 45
12 14 16 18 19 19 22 21 21 19 18 18 19 20 20 21 23 23 23 24 24 24 25 26 25 26 25 25 27 28 29 28 29 31 34 36 36 41
13 15 17 17 18 19 20 21 20 20 19 20 19 20 23 23 22 22 22 23 24 25 25 25 22 22 24 25 27 26 25 27 29 30 31 36 37 41
15 17 18 18 19 19 20 18 20 20 19 19 23 23 22 23 23 22 23 24 25 25 22 21 22 23 25 25 23 24 25 29 30 31 31 32 33 35
18 19 19 19 19 19 18 19 19 20 24 25 23 24 24 23 22 24 29 25 21 20 19 21 22 22 22 23 25 27 28 27 30 31 34 35 35 38
21 21 20 20 18 18 18 19 20 23 23 23 26 27 22 24 29 26 20 20 19 20 20 21 22 23 24 26 27 28 28 27 28 30 33 35 38 37
21 21 20 19 19 19 19 21 21 21 27 28 23 22 27 19 19 20 19 18 18 20 21 23 23 24 25 25 25 26 27 29 30 30 31 34 40 38
21 20 19 18 18 20 20 20 22 24 25 26 27 21 17 17 21 19 18 19 20 23 23 24 24 23 24 25 26 26 32 29 37 34 32 30 34 34
20 19 18 17 19 20 22 23 29 27 25 22 19 18 18 21 19 22 24 25 24 24 23 22 23 23 24 26 24 26 27 28 32 31 33 34 35 35
20 20 19 20 22 22 23 27 27 29 23 20 17 18 21 22 23 23 23 23 23 22 22 21 23 24 22 23 24 25 25 27 27 29 31 29 32 36
20 21 22 23 22 21 23 28 23 22 20 18 23 22 19 19 19 20 23 22 19 19 21 20 21 22 23 23 24 25 27 35 33 34 34 35 35 39
20 25 24 20 19 25 25 19 20 16 20 23 18 17 18 19 20 21 24 21 20 19 18 20 22 22 20 22 24 27 25 27 27 26 29 35 38 40
25 22 22 19 27 23 18 16 16 19 20 16 16 19 19 19 20 22 25 24 21 20 21 23 23 23 23 23 24 25 30 26 27 27 27 33 34 36
21 19 20 25 18 17 16 16 17 18 16 17 19 20 20 21 22 22 24 25 26 25 26 27 24 24 23 22 20 21 23 24 26 27 32 34 37 37
19 22 25 17 15 14 15 16 16 16 21 21 20 19 21 22 23 23 24 24 26 28 29 26 25 24 24 22 21 22 24 25 29 31 31 34 36 38
25 26 17 14 14 15 15 15 16 20 22 21 20 21 21 21 21 23 23 25 24 24 26 25 26 24 21 22 23 24 26 24 31 31 32 35 37 39
20 16 13 13 14 15 15 16 18 20 21 21 20 19 19 20 20 22 24 23 22 22 23 23 23 23 24 23 24 26 28 29 31 31 32 32 34 37
16 13 14 15 16 16 17 18 19 19 20 20 19 20 20 20 20 22 23 23 21 22 23 23 21 20 24 25 29 26 28 29 31 31 32 31 32 35
14 15 16 17 16 17 18 19 19 19 19 19 20 20 20 21 21 22 22 22 21 24 23 23 20 19 18 18 24 31 27 29 31 30 32 32 30 32
16 16 17 16 17 19 19 19 19 19 19 20 20 20 21 21 22 21 22 22 23 24 23 22 22 22 18 18 20 27 31 29 30 30 31 33 35 36
17 16 16 17 19 19 19 19 19 19 20 19 20 21 21 23 20 21 22 23 24 24 22 21 23 27 25 25 23 24 28 31 31 29 31 31 30 31
15 16 17 18 19 19 19 19 18 18 19 19 20 21 23 23 21 22 23 23 24 25 24 24 23 25 24 23 23 24 26 28 30 32 33 31 28 27
17 18 18 19 19 19 19 18 18 18 19 20 20 21 24 22 22 23 24 25 25 26 25 23 22 22 23 24 24 24 25 25 25 27 30 34 34 35

GFSNE_sfc_30mbdewp_033.txt.gz
Dewpoint
12 15 15 15 19 21 22 21 21 18 17 19 18 19 21 20 20 21 22 22 22 23 24 25 26 26 28 29 28 28 27 27 28 31 31 30 32 32
13 15 15 17 19 19 21 22 20 20 19 18 18 19 19 20 23 23 22 23 23 24 25 24 26 26 29 29 25 24 26 27 27 28 29 33 31 30
16 16 18 19 20 20 20 21 22 20 18 18 19 19 21 23 21 22 24 23 22 24 26 29 27 23 23 22 24 25 24 29 31 30 28 33 34 34
17 19 19 20 20 21 21 20 19 19 19 18 21 24 24 22 23 25 22 25 26 27 25 23 22 21 21 22 23 25 24 24 24 25 26 25 29 34
19 20 20 21 21 21 20 19 19 20 23 25 24 22 22 28 24 24 27 21 20 19 19 19 20 20 22 23 24 24 25 26 30 30 31 32 32 31
20 21 21 22 21 20 19 19 21 21 20 20 22 27 22 23 28 17 15 17 19 19 19 20 21 22 23 23 23 24 24 26 26 27 28 28 29 29
20 21 21 21 20 20 19 19 19 22 26 28 24 23 26 18 16 17 18 19 20 19 20 21 24 25 24 23 22 23 23 25 27 28 29 31 31 30
20 20 21 21 20 21 21 21 22 22 25 26 26 21 18 18 19 18 20 23 21 23 22 21 21 21 21 22 23 23 25 28 30 25 34 29 31 34
19 20 20 20 21 22 24 23 25 27 27 25 20 20 20 19 21 25 24 22 22 22 21 20 21 20 21 22 23 22 24 23 24 27 28 30 33 32
20 20 20 22 25 22 21 23 28 28 23 21 19 20 23 25 21 21 24 24 23 21 19 19 21 20 20 20 21 23 24 24 26 29 29 30 31 29
19 20 24 22 20 20 26 28 24 23 18 19 24 21 18 18 20 24 22 20 17 17 18 20 20 20 21 21 22 23 24 26 29 33 33 33 35 34
24 25 22 18 18 28 23 21 17 16 22 24 16 15 17 19 21 22 23 19 19 18 17 20 21 22 20 21 22 24 25 25 25 25 27 28 28 29
24 21 19 20 30 19 17 16 16 20 21 16 16 18 20 21 21 23 24 23 20 19 21 25 23 23 22 22 23 24 25 25 26 27 25 26 28 29
21 19 22 26 17 16 16 17 19 20 17 18 19 19 19 20 21 22 23 24 25 24 26 27 24 23 21 18 18 20 22 24 26 26 27 28 29 30
22 24 22 17 15 15 16 17 18 18 21 20 19 19 20 21 22 22 23 23 23 25 27 27 27 25 22 18 18 20 23 24 28 28 28 30 31 33
24 20 16 14 15 15 16 16 19 20 21 20 19 20 21 21 21 22 21 22 23 22 23 25 27 25 21 20 21 21 25 25 28 31 31 32 33 35
18 15 13 14 15 15 16 17 17 19 20 20 20 19 19 20 20 21 23 23 21 21 22 24 24 23 23 22 20 24 26 28 31 31 32 33 36 37
15 13 14 16 16 15 16 17 18 18 19 19 19 19 20 19 20 21 22 22 21 22 24 23 23 20 22 24 28 27 28 28 31 31 32 32 32 37
14 16 16 16 16 17 18 18 18 18 20 19 19 20 19 20 20 21 20 21 22 24 24 23 22 21 18 18 22 31 27 29 32 31 31 31 31 34
16 16 16 16 17 18 18 18 18 18 18 19 20 19 20 20 20 20 20 22 24 23 22 22 23 23 20 20 19 27 32 30 29 31 31 32 33 35
15 15 16 18 18 18 18 18 18 18 19 19 18 19 20 20 21 21 21 23 24 23 21 21 23 28 27 26 24 25 29 34 33 31 32 31 31 31
15 16 17 18 18 18 18 18 17 17 18 18 18 19 20 21 23 22 22 22 23 24 23 22 25 25 25 24 23 24 26 31 34 35 35 33 31 28
17 18 18 18 18 18 17 17 17 17 18 18 19 20 21 21 24 24 23 24 24 25 23 21 23 24 25 25 24 24 25 28 30 30 31 34 34 34

GFSNE_sfc_30mbdewp_036.txt.gz
Dewpoint
13 15 16 17 19 20 21 21 21 18 18 19 19 19 19 21 21 20 20 23 24 24 23 24 25 26 26 27 27 28 29 31 34 33 29 27 28 32
14 16 17 19 20 21 22 22 21 21 19 20 18 19 19 20 21 22 23 23 24 24 25 25 25 26 29 29 32 31 26 28 26 28 27 31 32 32
16 17 19 20 20 21 22 22 22 21 19 19 20 20 23 23 23 23 23 23 24 25 26 24 23 22 23 24 26 26 27 25 25 26 28 30 32 34
16 19 20 20 20 22 22 21 21 20 20 21 25 22 20 20 21 25 25 24 25 25 20 20 20 20 21 21 22 23 25 25 25 27 26 26 26 28
17 19 20 20 20 21 22 21 20 21 22 20 19 20 21 26 22 25 26 18 17 17 18 19 21 21 22 23 23 24 25 27 27 28 28 28 29 30
18 20 20 21 21 21 21 20 22 20 21 22 23 26 24 22 27 17 16 17 17 17 19 21 22 21 22 23 23 23 25 26 25 25 25 25 25 29
18 20 20 21 22 20 20 21 21 24 26 26 21 21 25 17 17 18 18 18 19 22 25 20 20 22 22 21 21 21 22 22 23 24 26 27 29 30
19 19 20 21 21 22 21 22 22 22 21 25 25 19 18 18 19 19 21 23 18 19 19 21 21 20 20 21 21 22 22 23 25 27 29 31 31 33
19 19 20 20 23 24 23 21 23 28 25 22 20 19 18 19 25 24 21 21 20 21 21 20 20 19 20 20 21 22 22 23 24 25 26 28 29 29
20 20 20 24 22 20 20 25 27 23 23 19 17 20 25 23 20 23 24 24 22 19 18 18 20 19 20 20 22 23 23 24 25 25 26 28 28 29
20 21 25 22 19 21 27 24 20 17 16 20 25 20 18 19 21 25 22 20 17 16 18 18 19 20 21 21 22 23 23 24 25 27 30 31 32 33
24 26 23 19 21 27 19 17 16 15 24 24 16 16 18 19 21 22 23 19 18 17 16 19 20 22 20 21 22 23 23 24 24 24 25 26 26 31
22 20 20 23 23 18 17 16 17 24 21 16 17 18 19 19 20 22 24 22 19 18 19 23 22 21 22 21 21 21 21 21 23 26 27 27 26 27
21 21 24 22 17 17 17 18 21 19 17 18 19 18 18 20 21 22 22 24 24 23 24 25 22 23 21 20 19 18 19 21 25 26 27 28 29 27
23 22 20 17 16 16 17 18 17 17 19 19 18 18 19 20 21 21 22 22 22 24 26 27 25 25 23 20 19 19 21 22 25 27 27 27 27 29
24 20 16 15 15 16 16 16 16 17 19 19 19 19 19 19 19 20 20 21 22 21 23 24 27 26 22 20 20 20 22 22 28 30 30 30 29 29
18 15 13 14 15 15 15 16 17 17 18 18 18 18 18 18 19 19 21 21 20 21 22 24 24 24 24 22 20 24 27 28 31 31 31 33 31 31
16 14 15 15 15 15 16 17 17 17 18 18 17 17 18 18 18 20 19 21 20 21 24 24 23 22 21 22 29 27 29 28 31 31 33 33 33 36
15 16 16 15 16 17 17 17 16 17 17 17 17 18 19 18 18 18 19 20 20 23 23 24 23 22 19 19 21 30 29 31 31 31 31 31 31 34
16 15 16 16 17 17 17 17 17 17 16 17 18 17 18 18 18 19 20 21 23 23 22 23 23 24 22 21 21 24 32 31 30 31 31 32 33 34
15 15 16 17 17 17 17 17 17 17 18 18 17 18 18 18 18 19 22 22 24 22 22 22 24 29 28 27 23 26 31 33 33 31 32 31 30 30
15 16 17 17 17 17 17 17 16 16 16 17 17 18 19 19 19 20 23 22 22 23 23 22 26 26 25 24 23 26 29 31 33 33 34 33 30 27
17 17 17 17 17 17 17 16 16 16 17 17 18 19 20 20 21 22 24 23 24 24 22 21 24 25 25 25 25 26 28 29 30 30 31 34 34 34

GFSNE_sfc_30mbdewp_039.txt.gz
Dewpoint
13 15 16 18 20 21 21 22 21 18 17 18 18 20 20 20 21 21 21 22 23 25 25 23 24 25 27 29 30 30 31 31 32 32 33 34 35 36
14 16 17 19 20 22 22 22 22 21 20 19 20 20 20 21 22 23 22 24 24 24 24 24 24 23 23 25 26 25 29 27 29 33 35 33 34 34
14 16 17 20 21 21 21 22 22 22 20 20 20 22 22 19 19 20 21 22 23 24 26 25 22 21 22 22 24 25 26 28 29 29 31 31 31 32
16 17 18 18 20 21 21 21 22 22 21 22 24 20 19 20 21 22 25 26 30 25 21 19 20 21 21 23 25 28 27 26 25 26 27 28 29 31
17 18 18 20 20 21 21 21 22 23 25 21 20 21 22 24 24 26 25 18 17 17 18 19 20 21 22 24 24 25 28 28 28 28 29 29 29 30
18 19 20 20 21 21 20 20 23 20 21 22 22 23 24 26 23 17 15 17 17 18 20 21 22 22 22 21 21 22 22 23 24 25 26 27 28 29
19 19 20 21 21 21 20 20 20 23 24 23 24 23 19 15 16 17 17 18 22 23 20 19 19 19 20 21 21 21 22 23 23 24 24 26 27 28
19 19 20 21 20 22 22 22 21 21 25 25 23 18 17 16 17 19 23 20 18 20 19 22 22 20 20 20 21 22 23 24 24 26 29 28 29 29
20 20 20 20 22 24 23 21 27 27 22 20 18 17 17 19 25 23 21 21 20 21 21 20 19 18 19 18 20 22 23 25 25 26 27 28 28 29
20 20 20 21 25 21 24 29 22 20 18 17 17 21 26 21 20 23 24 24 22 19 18 18 19 18 18 19 21 22 23 24 25 26 27 26 27 29
21 22 25 22 20 23 26 20 18 18 16 20 26 20 19 20 22 25 21 20 17 16 17 18 18 19 20 20 21 23 23 24 25 27 25 26 27 29
25 24 22 20 21 26 19 18 17 16 24 24 16 17 19 19 20 21 23 19 18 16 16 19 19 20 18 19 21 22 23 23 23 24 25 26 25 26
19 21 21 22 22 18 18 18 18 23 20 16 17 18 19 19 19 20 21 22 19 18 19 23 21 20 20 20 21 21 22 22 23 24 24 27 28 30
22 22 22 22 18 18 18 19 20 19 16 17 18 18 18 18 19 20 21 22 23 22 24 25 22 22 21 20 19 20 21 24 26 25 25 26 29 30
22 21 20 18 17 16 17 18 18 16 18 19 18 17 18 19 20 19 20 21 21 22 24 25 25 25 24 22 20 20 23 23 24 26 26 26 26 28
21 19 17 15 16 16 15 15 16 17 18 19 18 18 18 18 18 19 19 19 20 20 22 24 28 26 23 23 22 21 23 23 29 30 31 30 28 28
18 16 14 14 15 15 15 15 16 17 18 17 17 17 17 17 17 18 19 19 19 19 20 24 25 25 25 25 22 24 27 30 31 31 31 30 28 28
17 14 15 15 15 15 16 16 16 16 17 17 17 16 16 17 17 18 18 19 19 20 22 24 24 22 23 22 29 27 29 30 31 32 32 32 30 30
15 15 15 15 15 16 16 17 16 16 17 17 16 16 18 17 17 17 17 19 19 21 23 24 23 22 21 20 22 28 27 30 31 31 31 31 31 34
16 15 15 16 16 17 17 17 17 16 16 16 17 17 17 17 17 17 18 19 22 23 22 22 23 23 23 22 23 26 33 30 30 30 31 32 33 34
15 15 16 16 17 17 17 16 16 16 18 17 16 17 17 18 17 18 19 21 23 22 21 21 24 29 27 26 24 27 31 33 33 31 31 31 29 29
15 16 16 16 17 16 16 16 16 16 16 16 16 17 18 18 18 19 20 20 22 23 22 22 25 26 25 25 24 26 28 31 33 34 34 33 30 26
16 16 16 16 16 16 16 16 16 16 16 17 17 17 18 18 20 21 22 24 23 24 22 21 23 25 26 25 26 26 27 27 30 30 31 34 34 34

GFSNE_sfc_30mbdewp_042.txt.gz
Dewpoint
13 14 16 17 19 21 21 21 20 17 15 16 18 20 21 21 21 22 21 23 24 24 24 24 24 25 27 28 29 31 31 28 31 32 32 33 35 35
14 15 16 18 19 21 21 22 22 21 19 19 20 20 20 21 22 21 20 22 23 24 24 24 24 26 26 26 26 25 25 28 30 30 30 30 33 34
16 17 17 18 19 20 22 22 22 22 21 20 20 22 22 20 20 21 22 22 23 25 24 24 23 22 22 23 26 27 28 28 28 29 30 30 30 32
17 17 18 18 19 20 21 21 22 22 21 22 23 20 20 21 22 24 27 26 24 24 22 20 21 22 23 25 26 29 29 29 28 28 28 29 30 31
18 18 19 19 20 21 21 21 22 22 24 21 19 21 22 24 26 21 18 16 16 17 19 20 21 22 23 24 25 27 27 28 27 27 27 28 29 30
19 20 19 20 20 21 21 21 21 20 21 22 22 25 25 20 18 16 15 17 18 19 21 22 22 22 21 22 22 22 23 23 23 24 25 26 26 27
20 20 20 21 23 22 21 21 21 22 23 26 24 20 18 16 16 17 17 20 23 20 19 19 20 20 21 22 22 22 22 23 24 24 24 25 26 28
20 20 21 21 21 22 22 22 22 26 25 22 20 18 16 16 17 20 23 20 18 20 20 21 21 20 20 20 20 21 23 24 25 25 27 28 28 29
20 20 20 21 23 22 24 24 29 25 21 19 17 17 17 20 25 22 21 22 21 21 21 19 18 18 18 18 20 21 23 24 25 26 27 28 28 29
20 20 21 22 24 22 23 29 24 20 19 19 18 21 26 22 20 22 24 24 22 19 18 17 18 18 18 19 21 22 23 24 25 26 27 27 28 28
21 21 24 22 21 22 26 21 19 19 18 20 26 21 19 21 21 23 20 19 16 16 17 17 18 19 19 20 21 22 22 23 24 26 26 26 27 29
21 20 22 21 21 26 19 19 18 17 24 24 16 16 18 18 20 19 21 18 17 15 15 19 19 21 18 18 19 21 22 23 24 26 28 29 28 26
19 21 21 22 22 19 19 18 19 22 20 16 16 17 18 18 18 19 20 21 18 17 18 22 20 20 20 20 20 22 22 24 26 26 27 29 31 31
21 21 20 21 19 18 18 20 20 19 16 16 17 17 17 18 18 19 20 20 21 21 22 22 21 21 20 20 20 22 23 25 27 26 26 27 30 30
21 20 20 19 17 17 17 19 18 16 17 18 18 17 17 18 18 18 19 19 20 20 22 23 24 24 24 23 21 22 24 24 25 26 28 27 26 26
21 19 18 16 16 16 15 15 15 16 18 18 17 17 17 17 17 17 18 18 19 18 21 24 27 27 24 23 24 23 24 24 30 32 31 32 28 28
19 17 14 14 14 14 14 15 16 16 18 17 17 17 16 16 16 17 18 18 17 18 19 22 25 25 25 25 24 24 27 28 31 31 31 30 28 27
17 14 14 15 14 14 15 15 16 16 17 17 16 16 16 16 17 17 17 17 17 19 19 23 24 23 22 23 29 28 28 29 30 31 32 30 30 28
15 15 15 15 15 15 16 16 16 16 17 17 16 16 17 17 16 16 16 17 17 19 22 22 23 23 20 20 23 28 28 29 30 31 31 31 31 32
15 15 15 15 15 16 16 16 16 16 16 16 17 17 16 16 16 16 17 17 19 22 21 22 23 23 24 22 22 27 32 30 30 30 30 32 33 35
15 15 15 15 16 16 16 16 16 16 17 17 16 16 17 17 16 17 18 20 22 21 20 22 24 28 27 26 24 26 30 31 33 31 30 30 29 29
15 15 15 15 16 16 16 16 15 15 15 16 16 17 17 17 17 18 19 20 21 22 22 22 23 25 26 24 24 26 28 29 31 32 33 33 29 26
15 15 15 15 16 15 16 15 15 15 16 16 16 17 18 18 19 20 21 22 24 23 21 20 22 24 24 25 25 25 26 27 29 29 30 33 34 34

GFSNE_sfc_30mbdewp_045.txt.gz
Dewpoint
15 16 16 17 19 19 20 20 18 16 15 13 14 17 19 20 19 21 21 22 23 25 25 24 24 25 25 26 28 28 29 30 30 31 32 32 31 32
17 17 17 18 19 20 20 20 20 19 18 17 18 19 20 20 21 21 20 22 23 24 24 24 24 24 26 27 27 27 29 30 29 30 30 31 32 32
18 18 18 19 19 19 20 20 20 19 19 20 20 21 20 19 19 21 22 22 23 22 22 23 24 25 25 25 26 27 28 29 29 30 30 30 31 32
19 19 19 19 18 18 19 19 20 21 21 21 21 21 19 20 22 24 20 17 17 18 20 22 23 23 24 25 27 27 27 28 28 29 29 29 31 31
20 20 19 18 18 18 20 21 21 22 22 21 20 21 22 25 20 18 17 17 17 18 20 21 22 24 25 25 25 25 25 26 27 28 28 28 28 29
21 21 20 20 20 21 22 21 21 20 21 22 23 25 21 19 20 17 17 18 18 20 21 21 22 22 22 23 24 24 24 25 25 25 26 26 27 27
21 20 20 21 23 23 22 21 20 23 24 27 23 20 20 17 16 17 18 21 21 20 20 19 20 21 22 22 22 22 22 24 25 26 27 28 27 28
20 19 20 22 22 22 22 22 23 24 28 24 22 18 17 17 18 21 24 20 19 19 19 20 21 20 20 20 20 22 23 24 25 26 27 29 32 31
20 20 20 20 22 23 23 24 28 27 23 21 18 17 19 20 26 24 22 22 21 22 21 19 19 18 19 18 20 22 24 25 26 27 27 28 30 29
21 21 21 21 23 22 22 30 25 20 19 19 19 22 26 24 21 22 24 24 22 19 17 17 18 18 19 20 21 22 24 25 26 27 28 28 28 28
21 21 21 20 21 22 27 24 19 18 18 20 25 23 20 20 21 24 21 19 17 17 17 17 18 19 20 21 22 21 22 23 27 29 31 31 31 30
21 20 20 20 21 26 21 19 18 16 24 24 16 15 17 17 20 19 21 18 18 16 15 19 20 20 18 18 20 22 23 23 26 28 31 33 33 33
19 20 20 20 24 20 19 18 18 23 20 16 16 16 17 18 18 19 20 21 18 17 18 21 20 20 20 20 21 23 23 25 27 27 27 29 32 33
21 21 20 22 20 19 19 19 21 20 15 16 17 18 19 19 20 20 20 21 21 20 21 22 20 20 20 20 20 23 25 27 28 28 29 29 30 33
22 20 21 19 17 17 17 19 18 15 16 18 18 18 19 19 20 20 20 20 20 21 22 22 23 23 24 23 23 24 25 27 29 29 32 32 31 31
21 20 18 16 16 16 15 15 15 16 18 19 18 18 19 19 19 19 19 19 19 19 21 23 26 26 26 25 26 25 26 27 30 32 32 32 32 30
19 17 13 13 13 13 14 15 15 16 17 18 18 18 17 17 17 18 19 19 18 18 19 22 24 26 26 26 25 26 29 30 31 31 31 31 31 30
17 13 13 14 14 14 14 15 16 16 17 18 17 17 17 17 17 19 18 18 18 19 20 22 24 24 24 24 27 29 29 29 31 32 32 30 31 29
14 14 14 14 15 15 16 16 16 17 17 17 17 17 18 18 17 17 17 18 18 19 22 24 24 24 21 21 24 26 28 30 30 30 31 31 30 30
14 14 14 15 15 16 16 16 16 16 16 17 18 18 17 17 17 17 18 18 19 22 22 23 24 25 24 24 24 26 31 30 29 29 30 31 33 34
14 14 14 15 16 16 16 16 16 16 18 18 16 17 17 18 17 18 19 20 22 22 22 23 24 26 28 28 26 26 28 32 31 30 30 29 29 30
14 15 15 16 16 16 16 16 16 15 16 16 17 17 18 18 18 19 20 20 21 23 24 25 24 26 26 26 25 26 27 28 30 30 32 32 29 25
15 15 15 16 16 16 16 16 15 15 16 16 17 18 18 19 20 21 22 23 23 24 24 23 23 25 24 25 25 25 25 26 27 27 30 33 34 34

GFSNE_sfc_30mbdewp_048.txt.gz
Dewpoint
15 17 17 17 18 18 18 17 16 14 13 11 10 13 15 17 18 19 19 20 22 24 25 25 25 26 27 27 28 29 32 30 31 32 32 32 32 33
15 17 17 17 17 18 18 18 17 16 15 14 13 16 17 18 19 19 18 21 22 23 23 23 24 25 26 27 28 29 31 31 31 31 31 32 32 32
18 18 18 18 17 16 15 16 16 16 16 18 17 18 19 18 18 20 21 21 19 17 19 22 23 24 26 27 27 28 28 29 30 31 32 32 31 32
18 18 18 16 16 15 16 16 17 18 18 19 20 20 18 19 21 20 17 15 17 17 20 22 24 24 25 26 27 27 28 28 29 30 32 31 31 31
19 19 18 17 16 16 17 19 19 20 23 24 21 21 21 24 21 18 18 17 17 18 20 21 22 24 25 25 25 26 26 26 27 27 27 28 29 30
20 20 19 17 17 18 19 19 19 20 18 19 21 24 26 20 20 17 17 18 19 20 21 21 22 22 22 23 24 25 25 26 26 27 27 27 28 29
19 18 17 18 21 23 21 21 20 21 23 25 27 23 21 17 15 17 19 20 22 20 21 20 20 22 23 23 22 22 23 24 25 26 27 29 30 30
17 16 17 18 19 21 22 22 24 25 28 27 24 20 15 15 18 20 23 22 20 20 19 21 21 21 21 22 21 22 23 25 26 27 28 29 29 29
17 17 17 18 19 19 20 21 23 28 24 21 18 16 17 19 24 26 23 22 22 22 21 20 20 19 20 19 21 23 24 26 27 27 28 29 30 30
18 18 19 19 18 19 20 26 27 20 17 17 17 19 23 26 24 22 24 23 23 20 19 19 20 20 21 22 22 24 25 26 26 26 28 30 33 33
18 18 19 18 19 21 24 27 18 16 16 17 22 25 22 20 21 23 23 21 19 19 19 18 19 21 22 22 23 22 23 24 26 27 28 29 31 34
18 18 18 19 20 24 23 19 18 15 19 25 20 16 17 18 20 20 23 21 20 18 17 20 21 20 19 19 22 24 25 25 26 27 28 29 30 33
18 16 17 19 21 21 20 18 17 21 23 18 15 17 18 19 20 21 22 23 21 20 20 22 21 20 21 21 22 24 25 27 28 29 28 29 29 32
18 18 19 21 20 20 19 19 21 21 17 15 17 19 20 21 22 22 22 23 23 22 23 23 20 21 21 20 20 23 26 28 30 30 31 33 34 34
21 20 21 19 18 16 16 19 18 15 16 18 19 20 21 22 23 22 23 23 23 23 24 24 24 24 24 22 22 25 26 28 31 31 32 33 32 33
20 20 17 16 14 15 14 14 15 16 18 20 20 20 21 21 21 22 21 21 21 22 23 25 26 26 25 25 26 25 27 28 31 32 32 32 33 34
20 16 12 11 12 12 13 15 15 16 18 19 20 20 19 20 20 21 21 22 20 20 21 24 26 27 28 27 26 27 28 30 31 31 31 31 33 33
17 12 11 13 13 14 15 16 17 18 19 20 19 19 19 19 20 21 21 21 20 20 21 23 26 25 25 26 28 28 29 29 30 31 32 30 30 32
12 12 14 14 14 15 17 18 19 19 20 20 19 19 20 21 19 20 20 21 20 21 22 24 25 26 23 22 25 28 29 29 30 30 31 30 30 32
14 14 14 14 15 16 18 19 19 19 19 19 20 20 20 20 20 20 20 21 21 22 23 23 25 26 24 24 25 27 29 31 30 29 30 31 32 34
13 14 14 15 16 18 19 19 19 19 20 20 19 20 20 20 20 20 21 21 22 23 22 22 25 27 28 29 27 26 28 30 30 30 31 29 29 28
14 14 15 16 18 19 19 19 19 18 18 19 19 20 20 21 21 21 22 23 23 23 24 24 26 27 28 27 25 26 27 28 29 29 33 33 30 26
15 15 16 17 18 19 19 19 18 18 19 19 19 20 21 21 22 23 24 24 24 26 24 23 25 26 26 26 26 26 27 27 27 27 29 32 34 34

GFSNE_sfc_30mbdewp_051.txt.gz
Dewpoint
16 17 18 18 19 19 19 19 19 17 16 14 13 15 16 18 19 19 19 20 22 23 24 25 25 26 25 26 28 29 30 30 32 33 34 34 33 33
16 17 18 18 18 19 20 19 18 17 16 16 16 17 19 19 20 20 19 21 22 22 23 22 22 24 25 26 28 30 30 30 31 32 33 34 34 34
17 18 18 18 18 17 17 17 17 17 16 18 19 20 19 20 20 20 23 22 22 19 20 22 23 24 26 26 27 28 30 30 31 31 33 33 35 34
17 18 18 17 17 17 17 17 18 18 19 19 20 21 21 20 21 24 23 18 18 19 20 22 23 24 25 26 26 26 27 28 28 29 31 32 32 33
18 18 19 19 17 17 18 18 20 20 20 20 20 20 21 23 27 22 20 20 19 19 20 21 23 24 25 25 25 25 25 26 27 27 28 28 30 30
19 19 19 18 17 18 20 21 20 21 22 21 21 23 25 25 21 19 18 19 20 21 23 22 22 22 23 22 24 25 25 25 26 27 27 28 28 29
18 18 17 18 19 21 21 22 22 22 24 25 25 28 23 20 17 18 19 20 22 25 21 21 21 21 23 23 22 22 23 25 26 26 28 28 29 29
17 17 17 18 17 20 21 21 21 22 27 28 27 23 20 18 18 20 22 24 22 22 21 21 22 22 22 22 22 23 24 25 27 27 28 29 30 31
17 17 18 17 19 19 19 20 22 24 24 23 20 18 18 18 22 24 25 23 22 22 22 22 22 21 21 21 22 24 25 27 28 28 28 30 31 31
17 18 18 18 19 19 21 23 26 26 21 19 18 19 21 24 29 27 23 23 23 22 21 20 21 20 21 22 23 24 25 26 26 27 28 29 29 30
17 17 19 19 18 21 21 24 24 20 19 18 20 23 24 21 20 21 23 23 20 19 20 20 21 22 21 21 22 22 23 24 26 27 28 29 31 32
19 19 18 18 20 21 22 21 20 19 19 22 23 20 18 18 20 21 24 23 21 19 19 21 22 22 18 18 21 22 23 24 26 27 28 29 30 30
21 18 19 19 21 22 21 20 19 20 22 21 18 17 19 20 21 23 23 24 22 20 21 22 22 21 20 20 20 21 22 24 26 27 30 30 31 32
19 19 21 21 21 20 19 18 19 20 18 16 18 19 20 21 22 22 22 23 24 23 24 24 22 21 20 19 19 21 23 25 28 29 30 34 34 33
20 21 21 20 19 16 15 17 17 16 17 18 20 21 22 22 23 23 23 24 24 23 24 24 25 25 24 22 21 23 24 26 28 30 31 32 32 33
22 21 19 17 13 14 14 14 15 16 18 21 21 21 22 22 21 22 22 22 22 21 22 23 25 26 25 25 25 25 26 26 29 32 32 31 32 34
20 19 15 11 12 14 14 16 16 17 19 21 22 21 20 20 20 21 22 22 21 21 21 22 24 26 27 28 26 26 27 28 29 31 30 30 30 32
18 14 11 14 15 15 16 17 18 19 20 22 21 20 20 20 20 21 21 21 21 21 22 23 25 25 24 25 26 28 28 29 29 30 30 29 28 30
13 13 15 15 16 16 17 18 19 20 21 21 21 20 20 21 20 19 20 21 21 21 22 24 24 24 22 20 23 26 27 28 29 30 28 30 29 31
14 15 15 16 16 17 19 19 20 20 20 20 20 21 20 20 20 19 20 21 21 22 24 23 23 23 24 24 24 27 29 29 30 29 28 30 32 32
14 15 15 16 17 19 20 20 20 20 21 21 20 20 20 21 20 20 20 21 22 23 23 23 24 25 27 28 25 24 26 28 30 30 30 29 29 29
15 16 16 17 18 20 20 20 19 19 19 20 20 20 21 21 20 21 21 22 23 24 24 27 25 25 26 25 25 25 26 27 29 29 30 33 30 26
16 16 17 18 19 20 20 19 19 19 19 20 20 20 21 21 22 22 23 24 24 26 26 24 23 25 25 25 25 25 26 27 27 28 29 30 34 34

GFSNE_sfc_30mbdewp_054.txt.gz
Dewpoint
17 18 19 20 20 21 21 20 19 17 17 17 16 17 19 20 21 21 20 22 23 24 25 25 25 25 25 26 28 29 31 32 33 35 35 34 34 35
18 17 19 20 20 20 20 20 19 18 16 16 17 18 20 21 21 22 22 22 23 25 25 24 23 25 26 27 29 29 30 31 32 33 34 35 35 35
17 18 19 19 19 19 18 18 18 19 18 18 19 21 21 21 22 22 21 23 25 23 22 23 24 24 26 27 27 28 29 30 30 31 33 33 34 35
17 19 19 19 19 19 18 18 19 19 19 20 20 20 21 20 21 23 26 25 20 21 21 22 23 24 26 27 26 27 28 28 28 29 30 30 31 32
19 19 19 20 19 19 18 20 21 22 21 21 21 21 21 23 25 26 22 21 20 19 21 21 23 26 25 25 26 25 26 27 27 27 28 29 29 30
20 20 19 19 18 18 20 20 22 22 22 22 22 24 25 27 25 22 19 19 19 21 22 25 25 23 24 24 25 25 25 26 26 26 27 28 30 31
19 19 18 20 20 20 20 22 22 22 22 23 25 23 23 23 22 19 18 19 20 23 25 22 22 22 23 24 24 23 24 26 26 27 28 29 30 31
19 18 18 20 19 20 21 21 21 21 22 22 24 25 24 18 19 19 20 21 22 23 22 21 22 22 23 22 23 24 25 26 27 27 29 30 31 31
18 18 18 18 19 20 21 21 22 23 23 24 23 19 18 19 21 23 25 26 23 22 23 22 21 20 21 21 22 24 25 26 28 28 28 29 30 31
18 18 18 18 20 20 20 23 23 25 26 23 20 20 21 22 25 27 24 23 23 22 22 21 21 20 20 22 23 23 25 26 26 27 28 29 30 31
19 19 21 20 21 21 22 22 23 22 21 21 21 23 23 23 21 21 22 22 20 20 20 19 20 21 21 21 21 22 22 23 25 26 28 29 30 31
21 22 22 20 21 22 22 22 21 20 20 22 22 22 19 19 20 20 22 22 21 19 18 20 20 20 18 18 19 20 21 22 24 25 27 29 30 31
22 20 20 21 22 23 22 20 19 20 21 20 18 18 18 19 20 21 22 24 21 20 20 22 22 21 20 19 18 20 21 22 23 24 27 29 30 31
20 20 21 22 22 21 20 17 19 20 16 16 17 19 20 21 21 22 23 23 24 24 24 25 22 22 20 19 18 20 21 23 25 26 27 29 31 32
21 22 22 21 20 17 16 17 17 16 17 18 20 21 21 21 22 22 22 23 23 23 24 23 23 23 23 21 21 22 22 24 26 28 28 30 32 31
23 22 21 18 15 15 15 15 16 17 18 19 19 20 21 21 20 20 21 21 21 20 21 22 23 25 23 24 24 23 24 25 27 28 31 32 31 30
21 19 16 13 15 15 16 16 17 17 19 20 20 20 20 19 20 20 20 21 20 19 20 21 23 24 25 26 24 24 25 26 28 28 30 28 29 29
17 14 13 15 16 16 16 17 18 18 19 20 20 20 19 19 19 20 20 19 19 19 21 21 22 24 23 23 24 26 27 26 27 27 28 29 28 28
14 14 16 16 16 16 17 18 18 19 19 20 20 19 19 20 19 18 18 19 19 19 20 22 24 24 21 19 21 24 26 27 27 27 28 28 28 28
15 15 15 16 16 17 18 18 19 19 19 19 19 20 20 19 18 18 19 19 19 21 22 22 22 24 23 23 23 25 27 27 28 27 27 28 29 30
15 15 16 16 17 18 18 19 19 19 20 20 19 19 20 20 19 19 19 20 21 21 20 21 23 26 26 25 25 23 25 27 28 29 29 28 27 28
16 16 17 17 17 18 19 19 18 18 18 19 19 19 20 20 20 20 20 20 20 21 23 25 26 25 24 24 23 24 26 26 28 29 29 29 29 26
17 17 18 18 18 19 19 18 18 18 18 19 19 19 20 20 21 21 21 22 22 23 25 24 25 24 23 24 25 26 27 26 27 26 27 28 30 31

GFSNE_sfc_30mbdewp_057.txt.gz
Dewpoint
18 19 19 21 21 21 21 21 19 17 16 17 16 18 19 21 22 23 22 23 24 25 26 27 27 27 27 27 30 30 32 34 33 34 34 34 35 35
19 17 18 20 20 20 20 21 20 18 16 17 18 19 20 21 22 22 22 23 23 25 26 26 25 26 27 27 28 30 31 32 33 34 34 35 35 35
17 18 19 20 20 20 20 19 18 19 18 19 20 22 21 21 22 21 22 22 24 25 23 24 24 25 26 27 27 29 30 30 31 32 33 34 35 35
17 18 19 20 19 20 19 18 19 20 20 19 21 21 22 22 22 23 24 26 24 23 23 23 24 25 26 27 28 27 27 28 28 28 29 29 31 33
19 19 19 20 19 20 19 19 20 20 21 22 21 23 23 25 26 26 28 24 23 21 21 22 24 26 27 26 26 27 27 27 28 28 27 28 29 31
20 20 20 19 19 18 19 20 21 21 22 22 22 23 24 23 24 25 22 20 19 19 21 24 25 25 24 25 25 26 26 26 27 27 29 30 31 32
20 20 19 21 21 21 21 21 22 22 22 22 24 22 23 22 22 20 19 20 20 22 23 24 23 22 23 23 24 24 25 26 26 27 29 31 31 32
20 20 19 21 20 21 20 21 22 22 23 23 24 23 22 20 20 20 20 21 21 23 23 22 23 22 22 22 22 24 25 26 27 27 28 30 31 31
18 18 18 19 21 20 22 22 22 23 24 23 23 22 21 21 21 22 25 26 23 23 23 22 21 21 21 21 22 23 25 26 27 27 28 28 29 30
19 19 20 21 21 22 22 23 24 24 24 24 23 22 22 23 27 25 23 23 22 21 21 20 20 19 20 21 22 23 24 25 25 26 27 28 29 30
21 21 23 22 23 22 23 23 23 23 23 22 22 24 24 22 21 21 21 20 18 19 20 20 19 20 20 20 21 22 21 22 23 25 26 27 29 30
21 22 23 22 22 23 23 22 21 19 20 22 22 19 18 19 20 20 21 21 20 19 18 19 20 21 18 18 18 19 20 21 23 24 25 27 28 29
22 21 21 22 23 23 22 21 19 20 20 16 16 17 18 19 21 22 23 23 21 20 20 22 22 21 20 19 19 20 20 21 22 23 24 26 28 30
21 21 22 24 22 21 19 18 19 20 16 16 17 18 20 21 21 21 22 23 23 22 23 23 21 21 20 18 17 18 20 22 24 24 26 27 29 30
22 23 23 22 18 17 17 18 18 16 17 18 19 19 20 21 22 22 22 21 21 22 23 22 22 22 22 20 19 20 21 22 24 25 27 27 27 29
23 23 20 16 16 16 17 17 17 17 18 19 20 20 20 20 20 20 20 20 19 18 20 21 21 22 21 22 22 22 22 22 24 25 27 28 28 30
20 17 14 14 15 16 16 16 17 17 19 19 19 19 19 19 19 19 19 19 19 18 18 19 21 22 23 23 22 22 23 23 24 26 26 27 27 27
15 13 14 15 16 16 16 16 17 18 18 19 19 18 18 18 18 19 20 19 17 17 18 19 19 20 21 22 25 23 24 24 25 26 27 26 26 27
14 14 15 15 16 16 17 17 17 18 19 19 18 18 19 19 19 18 18 18 18 18 18 19 22 21 18 17 19 23 25 26 25 25 26 27 27 27
15 15 15 16 16 17 17 17 18 18 18 18 19 20 19 19 18 18 18 18 18 19 21 20 20 21 21 21 23 23 25 25 27 26 27 27 27 28
16 16 17 17 17 17 17 18 18 18 19 19 18 18 19 19 18 18 19 20 21 20 19 19 21 24 26 27 23 21 22 25 27 28 29 27 26 26
16 17 17 18 18 18 17 18 17 17 17 17 17 18 19 20 19 20 20 20 20 21 21 22 24 25 25 24 22 22 23 25 27 28 28 29 28 25
17 17 18 18 18 18 18 18 17 17 18 18 18 19 19 20 21 22 22 22 23 22 24 24 24 24 24 24 24 25 25 25 25 26 27 29 30 30

GFSNE_sfc_30mbdewp_060.txt.gz
Dewpoint
19 19 19 21 21 21 21 21 18 15 16 17 16 18 20 21 23 23 22 23 25 26 27 27 28 28 28 28 31 31 31 33 33 35 34 34 35 36
19 18 18 20 20 21 21 21 21 19 16 17 17 19 20 22 22 23 23 25 24 26 27 27 27 27 27 27 27 29 31 31 32 34 34 34 34 35
18 18 19 20 20 20 20 20 19 19 17 18 19 21 22 22 22 23 23 23 24 26 27 26 26 26 26 27 27 28 29 31 32 32 32 34 33 34
17 18 19 20 19 20 20 19 19 19 19 18 20 22 22 23 23 23 24 25 25 27 25 25 25 25 26 27 28 28 27 28 29 29 28 29 31 33
20 20 20 20 20 20 20 19 19 20 21 21 21 22 23 24 25 24 24 25 25 24 22 22 23 26 27 27 27 27 27 28 28 28 28 29 30 31
20 20 20 20 19 18 19 19 20 21 21 22 22 22 24 24 23 22 21 20 20 21 21 23 25 26 25 25 26 26 26 26 27 27 28 29 31 31
20 20 20 22 24 22 21 22 22 22 22 22 23 23 24 22 21 21 20 21 21 22 22 23 24 23 23 24 24 24 25 26 26 27 27 29 30 31
19 19 19 20 21 23 23 22 22 23 23 23 25 24 23 22 21 21 21 21 20 23 23 22 22 22 22 22 23 24 25 25 26 28 28 30 30 31
18 19 19 20 23 22 23 24 23 24 24 24 23 23 23 22 22 22 23 24 23 23 22 20 20 20 21 21 22 23 25 26 26 26 27 28 30 30
20 20 21 22 23 23 23 23 24 24 24 24 24 24 23 24 27 27 23 22 22 21 20 18 19 19 20 20 21 23 24 25 25 25 25 26 27 28
20 21 23 23 23 23 24 24 24 23 23 22 22 24 25 23 21 21 21 20 18 18 19 19 19 19 19 20 21 23 22 22 22 24 25 26 27 28
21 22 23 22 23 24 23 22 21 19 19 21 19 17 17 18 20 21 20 20 19 18 18 19 20 21 17 19 19 20 20 21 22 23 24 25 27 27
22 21 21 24 24 23 21 19 18 20 20 16 16 17 18 19 20 21 22 22 20 18 19 22 21 20 20 18 19 20 20 20 20 21 23 25 26 28
22 22 22 24 22 20 19 19 20 20 16 16 18 18 19 20 20 21 22 22 23 22 22 22 19 19 18 17 17 18 19 21 22 23 24 25 27 28
23 24 23 21 17 17 18 19 19 16 17 18 19 19 19 20 21 21 21 22 21 21 22 22 22 21 20 18 17 18 20 20 22 23 24 25 26 27
24 19 17 15 16 17 17 16 17 17 18 19 19 19 20 19 19 19 19 19 19 18 19 20 21 21 19 19 20 19 20 20 22 23 24 24 26 28
18 14 13 14 15 15 16 16 16 17 18 19 18 18 18 18 18 18 19 19 18 17 17 18 19 21 21 20 19 20 21 21 22 23 24 25 26 26
15 13 14 15 15 16 16 16 17 17 18 18 18 18 17 17 18 19 20 19 17 17 17 18 18 19 18 20 22 21 22 22 23 24 25 25 25 26
14 15 15 16 16 16 17 17 17 17 18 18 17 17 18 19 18 17 18 18 18 17 18 18 19 20 17 15 17 20 23 25 25 25 24 24 25 26
16 16 16 16 17 17 17 17 17 17 17 17 18 19 18 17 17 17 18 18 18 19 21 21 20 20 18 18 20 23 25 25 25 24 24 25 26 27
16 16 17 17 17 17 17 17 17 16 18 18 16 17 18 18 17 18 19 20 21 21 19 20 21 24 25 25 22 21 22 24 26 27 27 26 25 25
16 17 17 17 18 17 17 17 16 16 16 17 17 18 19 19 19 19 20 20 21 22 22 23 24 25 25 24 22 22 23 24 26 28 29 30 27 24
16 17 17 18 18 18 17 17 17 17 17 17 18 19 19 20 21 21 21 21 24 25 25 23 24 24 24 24 24 24 25 26 26 27 27 28 29 30

GFSNE_sfc_30mbdewp_063.txt.gz
Dewpoint
19 20 20 22 22 21 21 20 17 13 15 16 15 18 19 21 22 24 24 24 26 27 27 28 28 29 29 29 29 30 31 32 32 34 34 35 35 35
21 19 19 21 21 21 21 21 21 18 16 18 17 18 20 21 23 24 24 25 25 26 27 27 28 29 28 28 29 30 30 31 32 33 34 35 36 35
19 18 19 20 20 21 21 20 20 20 18 18 19 19 20 22 22 23 24 24 24 25 26 27 28 28 27 28 28 29 30 31 32 32 33 33 34 34
18 19 19 20 20 20 20 20 20 20 19 18 19 20 21 22 23 23 24 24 24 25 26 27 26 26 27 27 28 28 30 30 29 30 30 30 30 30
23 20 20 20 19 20 20 19 19 19 20 20 20 22 22 23 23 24 24 24 24 23 23 23 24 26 27 28 27 27 27 28 28 27 28 29 29 29
21 20 20 20 19 18 19 20 20 20 21 21 22 22 23 24 24 23 22 21 21 21 22 24 25 26 26 25 26 27 27 27 27 27 27 28 29 30
20 20 20 23 24 23 23 23 23 22 22 22 22 23 23 24 22 22 21 21 22 22 22 23 24 24 23 24 24 24 25 27 28 27 28 29 29 30
17 18 19 20 23 24 24 24 24 24 23 23 22 25 24 22 22 22 22 22 21 22 23 21 22 21 21 21 22 24 26 26 27 27 27 29 29 31
18 19 19 20 24 23 24 25 25 25 25 25 24 23 22 22 23 23 24 24 23 22 22 20 21 20 20 20 22 23 25 26 27 27 26 27 29 30
20 21 21 22 24 24 24 24 24 25 24 24 24 24 24 24 26 25 23 22 22 21 21 18 18 18 19 20 22 23 24 26 26 26 25 25 25 26
20 21 23 23 23 24 25 24 23 23 23 22 22 24 24 22 21 22 21 21 18 17 18 18 18 19 19 19 20 22 23 24 23 23 25 25 26 26
22 22 23 23 24 25 24 21 19 18 19 21 19 17 17 18 21 21 20 19 19 17 18 19 19 20 16 18 19 19 19 21 22 23 24 24 25 25
22 22 22 25 25 23 22 19 19 21 21 17 16 17 19 19 20 21 22 21 19 18 18 22 20 20 19 18 18 19 19 19 20 20 22 23 24 25
22 22 23 25 22 20 18 19 21 21 16 17 18 18 19 20 20 20 21 21 22 22 22 23 19 19 17 16 15 16 18 19 20 21 22 23 25 26
23 24 22 19 17 17 18 19 20 16 17 17 18 19 19 20 20 20 20 20 20 21 22 22 21 20 19 17 16 17 18 19 20 20 22 23 24 25
22 16 16 16 16 16 16 16 16 17 18 19 18 19 19 19 18 19 18 18 18 18 19 20 21 20 18 19 19 17 18 18 20 21 22 23 24 25
19 14 14 14 15 15 16 16 17 17 18 18 18 18 17 18 17 18 18 18 17 17 17 18 19 20 20 20 18 18 19 19 20 21 22 23 23 24
15 14 14 15 15 16 16 16 17 17 17 17 17 17 17 17 17 18 19 18 16 17 17 18 18 18 18 18 21 19 20 20 21 22 23 23 24 25
14 15 16 16 16 17 17 17 16 17 17 16 16 16 17 18 18 17 17 17 17 18 18 19 20 19 17 15 17 19 22 23 23 24 24 24 24 24
16 16 16 16 16 17 16 16 16 16 16 16 17 18 17 17 16 17 17 18 18 20 21 21 21 22 20 19 21 23 24 25 25 24 24 24 25 26
16 16 17 17 17 17 17 17 16 16 18 18 16 17 17 18 18 18 19 20 21 21 20 21 23 26 27 26 22 21 23 25 28 27 27 26 24 24
16 16 17 17 17 17 17 16 16 16 16 16 16 17 18 19 19 19 20 20 20 21 22 25 26 26 25 24 22 23 24 25 27 28 30 31 28 24
16 16 17 17 17 17 17 16 16 16 16 16 17 18 19 20 21 21 22 22 23 25 25 24 24 24 24 24 24 24 24 25 26 27 27 29 30 31

GFSNE_sfc_30mbdewp_069.txt.gz
Dewpoint
28 25 24 24 24 24 26 24 22 16 13 17 17 19 20 20 21 22 23 24 27 28 28 28 28 28 29 29 30 30 30 31 33 34 36 36 38 37
24 22 24 25 25 25 24 21 20 16 12 17 18 18 19 19 20 23 23 26 26 27 27 27 27 28 28 28 28 29 32 33 32 34 34 36 36 37
23 22 22 24 25 24 24 24 24 24 24 20 20 20 20 20 21 22 24 24 24 25 26 26 28 28 28 28 28 28 29 30 32 33 34 35 36 35
25 25 27 30 30 29 28 26 23 23 21 19 19 19 20 22 22 23 24 24 23 23 26 27 27 28 28 28 28 29 30 31 32 31 31 31 33 33
30 29 29 30 31 30 28 24 22 21 23 21 21 22 22 23 24 24 24 25 24 24 24 25 26 27 28 27 27 28 28 28 28 28 29 29 30 30
30 30 30 30 30 29 27 26 26 26 26 23 22 24 24 24 25 24 21 20 21 22 23 24 26 25 25 26 26 27 27 27 28 28 28 28 28 28
31 31 31 30 31 30 30 29 27 24 24 26 25 24 24 23 22 21 20 21 22 23 22 22 21 22 23 23 23 24 25 27 28 28 28 29 31 32
29 28 29 30 30 30 28 25 25 25 27 26 26 24 22 21 21 21 22 22 21 21 21 21 22 21 21 21 22 24 25 26 27 27 27 29 30 31
26 23 24 24 27 25 24 26 26 27 27 26 23 21 21 20 24 24 24 23 22 22 22 20 21 20 20 20 21 23 24 25 26 27 27 27 28 30
24 26 24 23 23 25 25 27 27 25 23 23 22 21 23 24 25 25 23 23 22 20 20 18 19 18 19 19 21 22 24 25 24 25 26 25 26 27
25 24 24 23 25 26 26 25 22 21 20 20 23 25 24 23 23 23 22 21 19 18 18 18 18 19 19 19 19 20 21 22 22 23 24 25 25 26
23 22 24 25 25 25 23 22 19 17 19 22 21 18 18 19 22 21 21 21 20 18 18 20 19 19 18 17 18 19 19 19 21 22 23 24 24 25
22 22 23 25 23 21 20 19 18 21 21 18 17 18 19 19 20 21 21 22 20 19 20 22 20 19 19 18 18 19 19 20 19 19 20 22 23 24
22 23 23 21 19 19 19 20 21 21 17 17 18 19 20 20 21 21 21 21 21 22 22 22 19 19 18 17 17 18 20 21 22 21 21 22 23 24
22 22 19 17 18 17 19 20 19 17 17 19 19 19 20 20 21 21 21 21 21 21 22 22 21 21 20 18 18 19 20 20 22 22 22 22 22 22
21 16 16 17 17 17 17 17 17 17 19 19 19 19 19 20 20 20 20 20 20 19 21 22 22 21 19 20 20 19 20 20 21 22 23 23 23 23
19 13 14 15 15 16 16 17 17 17 18 18 18 18 18 18 18 19 19 19 19 19 19 21 22 22 22 22 20 21 21 21 22 23 23 22 23 23
13 14 15 15 16 16 16 16 17 17 17 17 17 17 17 17 18 19 21 20 19 19 20 21 22 22 22 23 24 22 22 23 24 25 25 23 22 24
14 15 15 16 16 17 17 17 17 17 17 17 17 17 17 17 19 18 19 19 20 20 21 22 24 23 20 18 21 23 27 27 26 25 26 26 25 26
15 15 16 16 17 17 17 17 17 17 17 17 17 18 18 17 17 19 20 21 21 22 23 23 23 24 23 22 24 25 26 27 27 26 26 27 28 28
14 15 15 16 17 17 18 18 17 17 18 18 16 16 17 18 18 20 21 22 23 23 22 22 24 26 28 28 24 23 24 26 27 28 28 27 26 26
14 14 15 16 16 16 17 17 17 17 17 17 17 17 18 19 19 20 21 22 22 23 23 24 27 27 26 24 23 23 24 25 26 27 28 30 28 25
14 14 15 15 15 15 16 17 16 17 17 17 17 17 19 19 21 22 23 23 24 25 26 25 26 26 25 23 23 23 23 23 25 25 26 28 30 31

GFSNE_sfc_30mbdewp_072.txt.gz
Dewpoint
40 32 29 29 31 32 30 29 28 27 24 19 21 23 22 21 21 20 19 21 25 28 30 29 30 30 30 30 30 30 30 30 31 32 35 35 37 38
32 28 27 28 29 29 28 27 27 23 22 23 25 28 27 26 24 24 22 24 26 26 28 29 28 28 29 29 30 30 30 31 31 32 33 35 35 37
32 31 30 27 27 27 28 29 30 31 30 31 31 29 27 25 22 21 22 22 22 23 25 26 28 29 30 30 30 30 30 30 30 32 33 34 34 35
28 28 29 31 31 33 33 32 32 31 30 27 24 21 21 22 23 24 23 22 22 23 24 27 29 28 29 29 30 30 29 29 29 30 30 30 31 31
30 31 32 32 32 32 32 31 31 30 27 23 23 24 24 24 25 24 23 23 21 20 22 24 25 27 28 29 29 29 29 29 29 29 29 29 29 29
32 32 32 32 31 31 31 29 28 28 27 26 24 24 24 23 24 22 20 18 18 21 22 24 24 25 25 26 27 27 27 28 28 29 29 29 28 29
32 32 32 32 32 30 30 29 28 26 26 26 25 23 24 21 20 19 18 19 21 22 22 21 21 21 22 23 23 23 24 26 27 28 28 28 28 29
30 30 30 31 31 31 30 29 29 27 27 26 26 24 21 19 18 18 21 22 21 22 21 21 21 21 21 21 22 23 25 26 27 27 27 28 29 30
27 26 25 25 29 27 25 26 26 27 27 26 23 20 18 17 23 24 23 24 24 23 21 20 20 20 20 19 21 22 24 26 27 27 27 27 26 28
26 27 26 25 24 24 25 26 27 26 24 23 21 19 19 22 24 24 24 23 22 21 21 20 20 19 20 20 22 22 24 24 25 26 26 26 26 26
26 26 24 22 23 27 25 27 23 21 19 19 22 25 25 24 23 23 23 22 21 20 21 20 20 20 22 22 21 21 22 22 23 24 25 26 26 26
21 21 24 25 25 25 22 20 19 15 19 23 20 18 18 19 21 22 23 22 22 20 20 21 21 21 20 19 20 21 21 22 22 23 24 24 25 25
20 20 21 24 23 21 21 18 17 21 20 19 17 18 19 20 21 22 23 23 22 21 22 24 23 21 21 21 20 22 22 22 22 23 23 24 24 25
20 20 21 21 19 20 19 20 22 22 17 17 19 20 22 23 24 24 24 24 24 24 25 24 21 21 20 19 19 21 23 24 25 25 24 24 24 25
20 21 19 17 18 16 18 21 21 17 18 20 21 22 22 23 24 25 26 26 25 25 26 25 24 22 21 19 20 21 22 23 24 25 26 25 25 25
21 16 15 16 17 17 17 17 17 18 19 20 21 21 22 22 23 24 23 23 22 23 26 26 26 25 21 22 22 21 22 22 24 25 26 26 26 26
19 10 11 13 14 15 16 17 17 18 20 20 20 21 21 22 22 23 22 23 22 22 22 25 26 27 26 25 23 23 23 24 25 26 26 25 25 26
11 10 12 15 16 17 17 18 19 20 20 20 20 20 21 21 21 22 23 23 22 21 22 24 25 24 25 25 27 25 25 26 27 28 29 28 27 28
10 12 15 17 18 18 19 20 20 20 21 20 20 20 20 20 21 22 22 23 22 22 23 25 26 25 22 21 23 25 26 28 27 27 27 27 27 28
13 14 16 17 18 19 20 20 20 21 20 20 20 21 21 21 21 21 22 22 23 23 24 24 25 25 25 23 24 25 27 27 27 27 27 28 29 29
13 13 15 17 18 19 20 20 20 20 21 21 20 20 21 21 21 21 22 22 23 23 23 23 25 26 28 29 26 24 25 27 27 28 28 27 26 26
13 14 14 16 18 18 19 19 20 20 21 21 21 21 21 21 21 22 23 23 23 24 25 26 28 28 28 27 25 24 24 25 26 27 27 28 27 25
14 14 15 16 17 18 18 18 20 20 21 21 21 21 21 21 21 23 24 24 25 26 27 26 26 27 27 27 27 26 25 24 24 25 26 27 29 31

GFSNE_sfc_30mbdewp_075.txt.gz
Dewpoint
47 39 35 35 36 37 37 38 38 36 32 28 28 29 30 28 29 30 27 24 24 26 29 30 31 32 32 31 32 32 32 32 32 33 33 33 35 36
39 37 36 35 35 35 34 31 31 31 30 28 29 32 32 33 34 35 32 28 25 26 27 28 29 29 30 30 31 32 32 32 32 32 32 33 34 35
36 34 33 34 33 33 34 34 33 32 30 32 33 33 32 32 31 30 27 23 23 24 25 26 28 28 30 31 31 31 31 31 31 31 31 32 34 35
33 33 33 33 33 34 34 33 33 33 32 30 30 29 29 25 25 27 27 25 23 23 25 25 26 28 29 30 30 31 31 31 31 31 31 31 30 31
32 33 33 33 33 33 33 32 32 31 30 28 24 25 26 25 25 25 25 25 23 21 20 22 25 26 28 29 30 30 30 31 31 30 30 30 30 30
33 34 34 34 33 32 32 31 29 28 28 27 25 26 26 27 26 25 23 22 19 20 22 24 25 25 25 25 26 27 27 27 28 29 29 29 29 29
33 33 33 34 33 31 29 29 28 27 25 27 27 27 26 24 22 21 19 19 22 24 24 24 23 24 24 24 24 24 24 26 27 28 28 28 28 29
30 31 32 32 31 31 30 29 29 27 29 29 29 25 24 21 20 19 22 23 22 24 23 23 24 23 23 23 23 23 24 25 26 28 28 28 27 28
30 30 28 29 28 26 24 26 28 28 27 27 25 23 21 19 23 24 25 25 25 25 23 22 23 22 23 22 22 23 25 26 27 27 28 28 28 28
27 26 25 24 23 24 25 27 28 27 26 25 24 21 20 21 24 25 25 24 23 24 24 22 23 22 23 23 24 24 25 26 26 26 27 27 27 27
28 28 24 22 25 27 26 27 25 22 19 18 19 23 25 26 26 25 24 24 23 22 23 22 22 23 23 23 23 24 23 24 25 26 26 26 26 26
21 21 24 25 26 25 23 20 18 18 18 23 22 20 19 19 21 23 24 23 22 22 23 24 24 23 22 21 22 23 23 24 24 25 25 26 26 25
20 19 20 23 22 21 22 21 17 20 22 20 18 18 20 21 23 24 24 24 23 22 23 25 25 23 22 21 22 22 22 23 24 25 25 25 26 26
18 19 20 22 19 20 20 19 22 23 20 18 19 22 23 24 25 25 25 25 26 25 25 25 23 22 21 19 19 20 22 23 24 25 26 26 26 27
21 22 20 17 17 16 16 21 22 18 18 21 22 23 23 24 24 24 25 26 25 26 26 26 25 25 23 20 19 20 22 22 24 25 27 27 27 27
22 20 13 16 15 17 17 17 18 18 20 21 22 22 23 23 23 24 24 23 23 23 25 26 28 28 24 24 23 22 22 22 23 25 26 28 28 28
20 11 10 11 13 15 17 18 18 18 20 21 21 22 21 22 22 23 24 23 23 22 22 23 26 28 29 27 24 23 24 24 25 25 26 27 28 28
15 9 10 14 16 18 18 19 20 21 21 22 21 21 20 21 21 22 24 24 23 22 23 23 23 25 26 26 28 26 26 27 28 28 28 28 27 27
10 10 14 16 18 19 20 20 20 21 22 22 22 21 20 21 21 22 23 23 22 21 23 25 25 25 22 20 22 25 26 27 26 26 27 27 27 27
12 14 15 17 18 19 20 20 20 21 21 21 21 22 22 22 21 21 22 23 22 23 24 23 23 24 24 23 24 26 28 27 28 27 26 27 27 28
14 14 15 16 18 20 20 20 20 20 22 22 22 22 22 22 21 22 22 22 22 23 23 22 23 26 28 29 26 24 25 27 28 29 28 27 25 25
14 14 15 16 17 20 21 21 20 20 21 21 22 22 22 22 21 21 22 22 23 24 24 25 27 28 26 26 25 26 26 26 27 28 28 28 27 24
15 16 16 17 19 20 20 20 20 19 21 22 22 22 22 22 22 22 23 23 24 24 25 26 26 26 26 28 27 25 25 25 26 26 26 27 29 30

GFSNE_sfc_30mbdewp_078.txt.gz
Dewpoint
53 47 41 39 39 39 38 40 39 36 35 34 34 35 35 35 35 33 31 31 33 36 33 30 31 32 32 33 33 33 33 33 34 34 34 34 34 35
42 41 39 38 38 37 38 39 41 39 37 34 33 34 35 35 34 35 35 35 32 30 27 28 29 29 30 31 32 32 33 33 33 33 33 33 33 34
40 38 36 36 35 36 37 36 36 36 35 32 33 34 33 33 33 32 31 29 25 25 26 27 28 29 29 31 32 32 32 32 32 32 32 33 33 34
36 35 35 36 36 36 35 34 34 34 33 32 32 31 30 28 27 26 26 26 26 25 26 26 25 25 28 29 30 31 32 32 31 31 32 32 32 32
35 35 35 35 34 34 33 33 32 31 30 28 25 26 26 26 25 26 26 26 25 25 21 22 24 27 28 29 29 29 29 30 30 30 30 30 30 31
35 34 34 34 33 33 32 32 30 28 27 27 26 26 26 27 27 26 25 22 20 22 24 25 26 26 26 27 27 27 27 27 28 28 29 29 29 29
33 34 34 35 34 32 30 29 29 27 27 27 26 27 27 24 23 22 19 22 22 23 24 24 24 24 25 26 25 25 25 27 27 28 28 28 29 28
31 32 32 33 34 33 32 31 30 28 28 29 28 26 26 22 21 22 22 20 21 24 24 25 25 24 25 25 25 25 26 26 27 28 28 28 28 28
31 31 31 31 30 29 26 26 28 29 28 27 27 26 22 21 21 20 22 24 25 26 25 22 24 24 24 24 25 25 26 27 28 29 29 28 28 28
28 27 26 26 25 26 27 28 28 27 27 25 24 22 21 21 24 24 25 24 24 24 25 22 23 22 23 24 25 25 26 27 27 27 27 28 28 28
26 27 25 23 26 27 25 23 22 20 18 18 20 23 25 26 26 25 23 22 22 22 23 23 23 23 22 23 24 25 24 24 25 27 27 28 28 27
23 24 25 25 25 24 22 21 20 18 20 22 22 21 21 20 21 22 21 21 21 22 23 22 22 23 21 23 22 22 23 24 24 25 26 27 27 27
20 20 22 23 22 21 22 20 19 22 23 22 19 19 21 23 25 25 25 26 24 23 24 26 24 23 22 21 22 21 21 22 23 23 24 26 27 27
18 20 22 22 19 20 20 20 22 23 22 18 20 22 23 23 24 24 24 25 26 26 26 27 23 23 21 20 19 20 21 22 23 23 24 25 26 26
21 21 20 16 17 17 18 20 21 18 19 20 21 22 22 23 24 24 25 26 27 27 26 25 25 25 24 22 21 21 21 22 23 24 25 25 25 26
22 21 15 14 14 15 16 18 18 19 19 20 20 21 22 23 22 24 23 23 22 22 24 26 26 27 25 25 25 23 23 23 24 25 26 26 27 27
20 15 10 12 14 17 18 19 19 20 21 21 22 21 22 22 22 23 23 23 22 22 22 24 25 26 26 26 25 25 25 25 26 26 26 26 27 28
17 10 11 14 17 19 19 20 20 21 21 22 21 21 22 21 21 22 23 23 23 22 23 23 24 25 25 25 27 26 26 25 26 27 27 27 26 27
13 12 14 15 17 19 19 20 20 21 22 22 23 22 22 22 21 21 21 22 22 22 23 24 25 24 21 19 21 24 24 25 26 27 27 27 26 27
14 13 14 15 17 18 19 20 20 21 20 21 21 22 22 21 20 20 20 21 22 22 23 23 22 22 22 21 23 25 28 27 27 27 27 27 28 28
14 15 15 15 15 17 19 19 20 20 21 22 22 22 22 22 21 20 20 21 22 22 22 21 22 25 26 27 25 23 24 26 28 28 29 28 27 26
14 14 15 15 16 16 17 19 19 20 19 20 21 21 21 21 20 20 20 20 20 21 22 23 24 25 26 25 24 24 25 25 25 26 28 29 28 25
14 15 16 16 16 16 17 18 18 19 20 19 20 21 20 20 21 21 21 21 21 22 23 23 23 25 25 24 25 25 24 23 23 23 24 26 28 29

GFSNE_sfc_30mbdewp_081.txt.gz
Dewpoint
56 54 48 43 43 42 41 42 42 40 34 35 36 37 38 39 39 38 37 37 37 35 36 37 34 32 33 33 34 34 34 34 34 35 35 35 35 36
44 43 41 40 40 41 41 42 43 42 40 36 35 35 36 36 37 37 36 35 35 35 33 30 29 30 31 32 32 33 33 34 34 34 34 34 35 35
40 39 38 38 38 38 38 39 38 38 37 34 34 35 34 34 34 35 34 31 29 28 28 28 29 29 30 30 30 32 33 33 33 33 34 35 36 36
37 37 36 37 36 37 37 36 35 35 35 34 32 33 32 31 29 27 26 25 26 28 27 28 26 25 27 29 31 31 32 31 31 32 32 33 33 34
36 36 36 35 35 34 34 33 33 32 31 31 26 27 28 27 26 26 26 26 26 26 22 23 25 26 29 30 30 30 29 30 30 30 30 30 31 31
35 35 35 34 34 33 33 32 31 29 28 27 27 27 28 28 27 26 25 23 21 23 22 25 27 27 27 28 28 27 27 28 28 29 29 29 29 30
34 35 35 35 35 33 31 31 30 29 28 28 27 27 27 24 24 21 20 22 21 23 24 24 24 25 26 27 26 26 28 28 28 29 29 29 29 30
31 32 34 35 35 35 34 33 30 28 27 28 28 26 26 22 21 21 20 20 22 24 25 24 25 24 25 26 27 27 27 28 28 29 29 29 30 30
31 31 31 31 29 27 27 27 28 29 29 28 26 26 24 21 21 21 23 23 23 25 25 23 24 23 24 24 25 26 27 28 29 29 28 29 29 29
28 28 26 26 26 26 28 28 28 27 26 26 24 23 22 22 22 23 24 24 24 24 25 21 23 22 23 24 25 26 27 26 26 27 28 29 29 30
25 26 25 24 27 27 23 22 20 19 19 22 23 25 25 24 24 25 22 20 20 21 23 22 22 22 22 23 23 25 24 25 25 27 27 27 28 28
25 24 25 25 25 23 22 21 19 18 20 23 21 20 20 22 26 23 21 20 21 20 23 24 22 24 20 22 22 22 23 23 24 24 26 26 27 27
20 20 22 23 22 21 21 20 19 21 23 21 19 21 23 24 24 25 26 25 24 22 24 26 24 23 23 21 22 21 22 22 22 23 24 25 27 28
19 21 22 21 19 19 19 19 22 23 20 19 22 22 22 23 24 24 24 25 25 25 26 27 24 24 22 21 20 21 22 23 23 23 23 25 26 26
21 22 22 16 18 18 18 20 21 18 19 19 20 21 22 23 24 23 24 26 27 27 26 26 25 25 24 22 22 22 22 23 24 25 24 25 25 26
22 19 18 15 15 16 17 18 18 19 20 20 20 21 22 22 22 24 23 24 23 22 23 24 26 26 24 24 24 23 23 24 25 26 26 26 27 27
20 16 10 12 15 17 18 20 21 21 21 21 22 21 21 22 22 23 22 22 21 21 22 23 25 25 25 25 24 24 24 24 25 25 26 26 27 27
17 11 10 14 16 18 19 19 20 20 20 21 21 21 22 22 21 22 23 21 20 21 21 22 23 23 23 23 26 25 25 24 25 25 26 26 26 27
12 11 13 15 17 18 19 19 20 20 21 21 20 21 22 22 21 21 20 19 19 20 21 22 22 22 20 18 20 22 22 23 24 25 26 27 26 26
15 13 13 14 15 16 17 18 19 20 20 20 20 21 22 22 21 19 19 18 19 19 21 22 22 21 20 20 21 23 26 25 25 25 25 27 27 28
14 14 15 15 15 15 16 17 19 19 20 21 20 20 21 21 19 19 19 20 21 21 19 20 21 23 24 25 23 22 23 25 26 26 27 26 25 25
14 14 15 15 15 14 14 15 16 18 18 19 18 19 20 20 19 19 19 19 19 19 20 21 22 23 24 23 22 23 23 25 26 27 27 27 26 23
15 15 15 15 15 14 14 15 16 16 16 17 19 18 19 18 19 20 20 19 19 19 20 20 21 23 23 23 24 24 23 24 24 24 25 26 26 27

GFSNE_sfc_30mbdewp_084.txt.gz
Dewpoint
54 54 51 46 45 46 46 46 47 44 39 36 34 38 39 40 40 40 39 40 41 41 40 38 39 39 37 34 34 34 35 35 35 35 35 36 36 36
44 44 43 42 42 43 43 44 44 43 42 37 36 36 37 38 39 39 38 38 38 38 37 38 36 31 31 32 33 33 33 34 34 34 34 36 36 38
41 40 40 40 39 40 40 40 39 39 40 34 35 35 35 35 36 37 36 36 34 32 30 30 30 30 31 30 30 31 32 33 33 34 35 36 37 37
38 38 37 37 37 37 37 36 35 35 35 34 33 33 33 34 34 30 28 27 27 27 29 29 29 27 27 29 30 31 32 33 32 33 33 33 34 35
37 37 36 36 35 35 34 33 33 32 32 32 29 29 29 28 27 27 26 27 26 26 24 24 25 25 28 30 31 31 31 30 31 31 30 31 31 31
35 35 35 34 34 33 33 32 30 28 28 27 26 28 28 28 27 26 25 22 22 22 22 26 26 27 27 28 29 29 28 29 29 30 30 30 30 30
35 35 35 35 34 33 31 30 30 29 28 28 27 27 27 24 23 21 20 21 21 22 24 25 25 25 26 27 27 27 29 30 29 30 30 30 30 31
32 33 35 35 35 34 34 32 30 28 26 27 27 25 25 23 21 20 20 21 20 24 25 24 24 24 24 25 27 28 28 29 29 29 30 29 30 30
31 31 30 29 26 26 27 28 28 29 30 27 26 26 25 22 20 20 21 22 22 24 24 22 24 23 23 24 25 27 29 29 28 28 29 30 30 30
27 25 24 25 26 27 27 27 26 26 23 25 25 24 23 22 21 20 22 23 24 23 24 21 23 22 23 23 25 27 27 26 27 27 28 28 28 29
25 25 23 25 27 28 22 21 20 19 20 24 25 25 25 25 25 25 24 21 19 21 23 23 22 22 23 23 23 25 25 24 25 26 27 27 27 28
24 25 26 25 24 23 22 20 17 17 19 23 22 19 22 25 28 24 21 20 20 20 23 25 23 23 19 21 22 22 22 23 24 24 25 27 27 27
20 20 21 24 22 21 23 20 18 20 23 21 19 21 23 24 24 24 25 24 22 22 24 26 24 24 23 21 22 22 22 22 22 23 25 25 27 28
18 21 21 22 19 19 20 20 21 24 20 19 22 21 22 23 23 23 24 24 26 25 26 27 24 23 22 20 20 21 22 23 24 23 24 25 26 27
20 22 23 19 17 18 19 19 21 18 19 19 20 20 22 22 22 23 23 25 26 26 25 24 25 24 24 22 21 22 22 23 24 25 25 25 25 26
23 20 19 17 17 17 17 19 18 19 19 19 20 21 21 21 21 23 22 22 22 21 22 21 21 22 23 23 23 22 23 23 24 25 25 26 26 27
21 16 11 12 14 17 18 20 21 21 21 21 22 22 21 22 21 22 23 22 21 19 19 20 22 24 24 24 22 23 23 23 24 25 25 24 25 26
18 13 10 12 14 17 18 19 20 20 21 21 22 22 21 21 21 22 23 22 19 19 19 20 21 21 21 22 25 23 23 24 24 24 24 24 25 26
16 12 12 13 14 17 18 19 18 20 21 21 21 20 21 22 21 21 19 18 18 18 18 19 19 20 18 17 19 21 21 21 23 24 25 26 25 26
15 14 13 13 14 15 15 16 18 19 20 20 21 20 20 21 21 19 18 18 17 18 18 20 20 20 19 18 20 21 24 24 24 24 24 25 26 28
13 13 14 15 15 15 14 14 15 17 18 19 21 19 19 20 19 18 18 19 20 20 18 17 19 21 24 24 21 20 21 24 25 25 25 25 25 25
17 15 15 15 15 14 13 13 13 14 15 16 17 19 18 18 18 18 18 18 18 18 18 19 20 22 23 22 20 21 21 23 25 25 27 27 26 23
17 16 15 15 14 13 13 13 13 14 14 14 15 16 17 17 17 18 18 18 18 18 18 19 20 20 20 21 22 22 23 23 23 23 24 25 26 27

GFSNE_sfc_30mbdewp_087.txt.gz
Dewpoint
51 52 51 47 47 47 48 49 49 45 42 38 35 39 40 41 42 42 41 42 43 43 43 42 41 40 41 40 38 36 35 35 35 35 35 36 36 37
46 46 44 43 43 43 44 44 45 45 43 37 36 37 38 39 40 39 39 40 40 41 40 39 39 37 34 33 33 33 33 34 34 35 35 35 36 38
42 42 41 41 40 40 40 40 40 41 41 34 35 35 35 36 37 39 38 37 36 36 33 31 31 32 32 31 31 31 32 33 33 33 35 36 37 37
40 39 39 38 38 38 37 37 36 36 37 35 33 33 33 34 34 34 31 28 27 28 29 30 30 29 29 29 29 30 32 32 34 33 32 33 33 34
38 38 37 37 36 35 35 34 33 33 33 33 31 31 30 28 27 27 27 27 26 25 24 25 25 27 29 30 31 31 31 31 32 31 31 31 32 32
36 36 36 35 34 33 33 31 29 29 29 28 27 28 28 28 27 26 24 21 21 21 23 25 28 27 28 29 30 30 30 30 30 31 31 31 32 31
34 34 34 35 35 34 31 30 29 28 27 26 26 26 26 24 23 21 20 20 20 22 24 24 24 24 25 27 27 28 30 31 30 31 31 31 31 31
33 34 34 34 35 34 33 32 29 26 25 26 26 25 24 24 21 21 20 20 14 24 24 23 24 23 24 24 27 27 28 29 30 30 30 29 30 31
32 31 28 27 26 27 29 30 30 31 29 27 25 25 25 24 21 20 20 20 22 24 24 21 24 22 23 23 25 27 29 29 29 29 29 29 29 29
26 24 23 25 27 27 27 26 24 22 23 27 26 24 24 22 21 20 21 22 24 23 24 20 22 22 23 23 25 27 28 27 26 27 28 29 28 28
24 24 25 26 29 27 22 21 20 19 21 26 25 25 26 26 26 24 24 23 19 21 23 22 22 22 23 23 23 25 26 24 25 26 27 28 27 28
25 26 27 25 24 24 21 19 16 15 19 23 21 20 23 26 27 23 20 20 20 20 22 23 23 22 19 20 21 21 21 24 25 25 26 27 27 27
21 20 22 24 22 21 24 20 17 20 23 21 19 21 23 24 24 24 24 23 21 21 23 26 24 23 23 20 22 22 22 22 22 23 25 26 27 28
18 20 21 23 19 19 20 21 21 24 21 19 21 21 22 22 23 23 23 24 26 25 25 26 24 23 21 20 19 20 22 23 24 24 24 25 26 27
20 22 24 22 18 18 18 20 22 18 19 19 19 20 22 23 22 23 23 24 24 25 26 25 24 23 22 21 20 21 22 23 24 24 24 24 25 25
23 20 19 19 18 18 18 19 18 18 18 19 19 21 22 21 21 22 22 21 21 21 21 20 20 19 20 22 22 21 22 22 23 24 25 25 25 26
22 16 11 11 12 15 18 19 20 21 21 21 22 21 22 21 21 22 22 22 21 19 19 20 21 21 21 21 21 22 22 22 24 24 24 23 24 25
19 15 10 10 13 14 16 18 20 20 21 21 21 22 22 21 21 22 23 21 19 18 17 17 18 18 19 20 24 21 22 22 23 23 23 23 23 24
20 16 13 12 13 14 17 18 18 19 20 21 21 21 21 21 21 20 19 19 18 17 17 17 17 17 17 16 18 20 20 20 21 21 23 24 24 24
17 16 15 13 13 14 15 15 16 17 19 20 21 21 20 20 19 18 18 17 17 17 17 17 18 18 18 17 18 20 22 22 22 22 23 24 26 26
14 14 14 14 14 14 14 14 13 14 15 17 18 19 20 18 18 18 18 18 19 20 17 16 17 20 22 23 20 19 20 22 24 23 23 24 23 24
19 18 17 16 15 14 13 12 12 12 14 14 14 15 17 18 17 17 17 16 16 17 17 18 19 19 20 20 19 19 20 22 24 24 26 26 25 23
18 18 18 17 15 14 12 12 12 13 12 13 13 13 14 15 16 17 17 17 17 17 17 17 18 18 19 20 20 20 20 21 21 23 24 25 25 27

GFSNE_sfc_30mbdewp_090.txt.gz
Dewpoint
54 53 53 48 48 49 49 50 50 46 44 38 36 39 40 42 43 42 42 43 43 43 43 43 43 42 41 41 40 38 37 36 36 35 35 36 37 37
48 48 47 44 44 45 45 46 46 47 44 38 36 37 39 39 40 40 40 40 40 41 41 41 40 39 37 35 34 34 34 34 34 34 35 35 36 38
44 45 43 42 42 42 42 41 41 42 42 35 36 36 36 37 37 39 38 37 37 38 35 33 32 32 33 33 32 32 32 32 32 33 34 36 36 36
42 41 40 40 39 39 38 38 37 37 38 37 34 34 34 35 35 34 33 31 29 29 30 31 31 31 30 30 29 29 31 32 33 32 33 33 34 33
40 39 38 38 37 36 35 35 34 34 35 34 31 31 30 28 27 28 27 26 25 25 25 26 26 27 29 30 31 31 31 32 32 32 32 32 33 33
37 37 36 36 35 34 32 30 30 30 30 29 28 28 28 28 27 25 23 21 21 21 22 26 27 28 28 28 29 30 30 30 31 31 32 32 32 32
35 34 34 35 35 34 31 30 28 27 26 25 25 26 25 24 23 21 20 20 19 22 23 23 24 24 24 27 27 28 29 30 31 31 32 31 31 30
34 34 34 35 35 34 32 30 28 25 24 26 25 25 24 23 22 21 19 18 10 23 24 23 24 23 23 24 26 28 28 29 31 31 30 30 30 30
32 30 28 28 27 28 31 31 31 31 29 26 24 24 24 24 21 20 20 19 20 23 24 21 23 22 23 23 25 27 29 30 29 28 29 30 30 30
26 23 25 26 27 26 26 25 23 23 25 27 26 25 24 22 21 20 21 22 24 24 24 20 22 22 23 23 26 28 29 27 26 27 28 29 28 28
23 25 26 28 29 25 22 20 19 19 22 27 26 25 27 27 25 23 23 23 20 21 23 22 22 22 23 22 22 25 27 25 26 27 27 28 28 28
26 27 27 25 24 26 20 18 14 14 19 23 21 20 24 27 27 22 20 20 20 20 22 23 22 21 19 20 21 21 22 23 25 25 26 27 27 27
23 22 23 24 22 21 24 20 17 19 23 21 19 22 23 24 24 24 23 22 21 21 23 25 23 23 22 20 21 21 21 22 22 24 25 26 27 28
18 20 20 23 19 19 20 22 21 26 21 19 21 21 21 22 23 23 23 24 26 25 26 26 24 23 21 20 19 20 21 23 23 24 24 25 27 27
19 21 24 24 20 19 18 20 23 19 18 19 19 20 21 23 22 22 22 23 23 24 25 25 26 24 22 20 19 20 21 21 23 23 23 23 24 25
24 21 19 19 20 19 18 19 18 18 18 18 19 20 22 21 21 22 22 21 21 21 21 20 19 18 19 19 20 20 21 21 21 23 24 24 25 25
21 17 11 10 11 13 16 18 20 20 21 20 21 21 20 21 21 22 22 22 21 19 18 19 20 20 19 19 18 20 20 21 22 22 23 23 23 24
20 15 12 10 10 12 14 16 19 20 21 21 20 21 21 21 21 21 22 22 19 18 17 16 16 16 18 19 22 20 20 20 21 22 22 22 21 23
22 20 17 13 11 13 14 16 17 18 18 19 20 21 21 20 19 20 19 19 17 17 16 16 15 15 15 15 17 20 22 21 20 21 21 22 22 23
20 19 18 16 14 13 13 14 15 15 16 18 19 20 20 20 20 19 18 18 17 16 16 16 16 16 16 15 17 18 20 20 20 21 21 22 23 25
17 14 13 13 14 14 14 13 13 13 13 14 15 17 18 19 18 17 17 18 18 18 16 16 16 19 19 20 17 17 18 21 22 23 22 22 22 23
19 17 17 17 16 15 14 13 12 12 13 13 14 14 14 16 17 18 17 16 16 15 15 16 17 17 17 17 16 17 19 20 22 23 23 24 24 22
22 21 20 18 17 16 14 12 11 11 11 11 11 12 11 12 14 15 16 16 16 15 15 15 17 17 17 17 18 18 19 19 20 21 21 23 24 27

GFSNE_sfc_30mbdewp_093.txt.gz
Dewpoint
58 57 56 52 51 51 52 52 51 46 46 40 39 40 41 44 44 44 44 45 44 44 44 43 43 43 42 42 41 38 37 37 37 37 36 36 37 37
52 52 50 48 47 47 48 48 48 49 46 39 37 38 40 40 41 41 40 41 41 41 42 41 40 38 37 36 35 35 35 34 35 35 35 35 36 37
47 47 46 45 45 44 44 43 43 45 44 36 37 37 38 38 38 39 38 37 36 37 36 34 33 33 33 33 33 33 33 33 32 33 34 35 34 34
45 43 42 41 41 41 41 40 40 40 41 39 35 35 35 36 35 35 32 29 28 29 31 31 32 32 31 31 31 30 30 32 33 33 33 33 34 34
41 41 40 40 39 38 37 36 36 36 37 36 33 33 31 29 28 28 27 26 24 25 25 26 27 27 30 29 30 31 32 33 33 33 33 33 33 33
38 38 38 38 37 35 33 33 33 33 33 32 30 29 28 28 27 26 25 23 22 20 21 26 27 29 29 28 29 30 31 31 31 31 32 33 33 32
36 35 36 36 35 33 32 30 30 29 29 29 28 26 27 25 24 22 21 20 20 22 22 22 23 23 23 26 27 27 28 30 31 32 32 32 31 31
35 35 36 36 35 33 31 30 27 26 26 27 26 24 24 24 22 22 21 19 12 23 24 22 24 22 23 24 26 28 29 30 31 31 31 31 31 30
33 32 30 31 30 32 33 32 32 31 28 25 22 23 23 24 24 23 21 21 21 24 24 21 22 21 23 22 25 28 29 30 29 28 29 30 30 30
27 26 25 26 27 26 26 26 24 25 26 27 26 26 24 24 23 23 24 24 24 24 24 22 22 22 22 23 26 29 29 29 28 28 28 29 29 29
24 27 29 29 28 26 24 22 20 20 27 28 26 26 27 28 25 25 25 24 21 21 23 22 23 22 23 22 21 25 26 27 26 27 27 28 29 29
27 29 28 26 27 24 18 16 13 13 20 22 20 20 24 28 27 24 24 23 23 22 23 24 23 22 23 21 21 22 22 23 25 25 26 27 28 27
24 24 25 24 22 24 23 19 15 19 25 21 19 21 23 24 24 24 24 24 23 22 23 25 24 23 22 22 22 23 22 22 22 23 24 26 27 28
20 20 23 24 21 20 23 22 22 25 22 19 20 21 22 24 24 23 23 24 25 25 25 27 24 23 22 21 20 22 22 23 23 24 23 25 27 26
19 20 22 23 20 20 18 20 24 21 19 19 20 21 23 24 25 24 24 24 24 24 25 26 25 24 23 21 21 21 22 22 23 24 26 24 24 25
23 24 20 19 19 17 19 21 19 19 19 20 20 22 23 23 22 23 23 22 21 22 24 23 22 21 21 21 21 21 21 21 24 24 24 24 25 25
22 18 12 10 11 13 16 18 19 19 22 21 22 22 21 20 21 22 23 22 21 21 21 21 22 21 21 21 20 20 21 22 23 24 24 23 24 24
22 16 12 10 10 11 13 15 18 20 21 22 22 21 21 21 21 22 22 22 20 20 20 20 19 19 20 20 22 21 21 22 23 24 24 23 22 23
23 18 17 15 13 13 14 16 17 19 20 22 22 21 22 21 20 20 20 19 19 19 19 19 18 17 17 16 18 23 23 22 22 21 22 22 22 24
23 22 20 19 17 16 15 16 16 18 18 19 20 21 21 21 20 19 18 17 17 17 18 18 18 18 17 17 18 18 20 21 21 21 21 23 24 24
21 20 20 18 16 16 16 16 15 15 16 16 16 17 19 20 20 19 17 18 18 18 17 17 17 17 20 20 16 16 19 20 21 22 23 22 21 22
21 19 18 17 17 17 17 16 15 15 17 16 16 16 16 17 18 18 17 17 16 16 16 17 17 17 18 17 16 17 18 19 20 21 22 23 23 21
23 22 21 21 21 20 18 17 15 15 14 14 14 14 14 14 15 15 15 15 15 16 15 15 15 16 17 17 17 17 18 19 19 21 22 23 24 24

GFSNE_sfc_30mbdewp_096.txt.gz
Dewpoint
59 59 58 58 57 56 55 54 53 49 48 43 42 41 43 44 44 45 46 46 45 45 44 44 44 43 43 42 41 39 38 38 38 38 38 37 37 37
58 58 54 52 52 52 53 53 51 51 48 43 41 40 40 41 42 42 42 41 41 42 42 41 40 38 37 37 36 36 36 36 36 36 36 36 36 36
52 52 50 49 48 48 49 49 48 49 46 38 39 38 39 40 39 39 39 38 37 37 35 34 34 34 34 34 34 34 34 34 33 33 35 35 35 34
48 48 46 45 45 44 45 45 45 45 45 41 38 37 38 38 37 36 34 30 30 29 31 32 32 32 32 31 32 32 32 32 33 34 34 35 34 34
45 45 44 43 42 42 43 42 41 40 41 41 37 36 34 34 32 30 28 27 24 26 25 26 28 29 28 30 30 30 31 33 33 33 33 33 33 34
42 42 41 42 42 40 38 38 37 37 38 37 34 33 32 29 30 29 27 25 24 21 21 23 26 26 29 29 29 29 31 32 31 31 33 33 33 33
39 39 39 38 37 36 35 34 34 34 34 36 33 31 31 28 27 25 23 21 20 20 18 18 20 21 22 25 27 29 28 29 31 32 33 33 32 32
37 37 37 36 35 34 32 31 30 32 31 31 30 28 26 25 23 21 20 19 15 20 21 19 23 22 23 23 24 28 29 30 31 32 31 31 31 32
36 35 33 34 33 33 33 32 32 30 27 22 20 18 20 22 25 24 21 20 20 21 24 21 22 21 22 22 25 28 30 30 31 29 30 30 30 31
33 31 31 30 29 28 26 26 25 25 26 24 24 24 24 24 24 26 26 25 23 23 24 24 22 22 22 23 25 30 30 31 30 29 29 29 30 30
26 26 25 26 28 26 25 23 21 25 29 28 27 27 28 27 25 25 25 23 23 20 23 22 24 24 24 24 22 26 27 28 29 28 28 28 29 29
27 29 29 26 25 21 15 13 12 15 20 21 21 22 23 28 29 25 26 26 25 24 24 24 25 25 26 24 23 23 23 23 24 27 26 27 28 27
25 24 25 26 26 26 20 16 13 15 23 19 17 18 20 24 23 23 25 27 25 25 25 25 24 24 24 25 25 25 25 24 23 24 25 25 26 28
21 23 24 24 22 23 23 22 25 24 21 18 17 19 21 23 25 25 24 25 25 25 26 27 24 24 23 23 22 25 25 26 26 25 25 25 26 26
18 19 23 23 21 20 19 20 24 22 19 18 18 21 24 26 27 26 26 26 27 26 25 26 25 25 25 23 22 23 24 25 26 27 27 26 26 25
22 24 23 22 22 18 18 22 20 18 19 20 20 22 25 25 23 23 23 23 23 23 27 27 26 25 23 22 22 22 23 23 26 27 27 26 26 25
23 20 17 16 16 15 14 14 15 16 19 19 22 23 23 23 22 23 23 23 22 21 22 23 24 24 24 23 22 23 24 25 26 27 26 25 26 25
18 14 11 9 9 8 10 12 14 17 19 22 23 23 22 22 21 22 23 22 21 21 21 22 21 21 21 22 25 24 24 24 26 26 26 24 24 25
21 16 13 13 13 13 12 15 18 18 22 23 23 23 23 22 21 20 20 20 20 20 20 21 20 19 18 16 18 25 24 23 24 24 24 24 24 25
22 22 20 19 18 18 17 18 19 19 21 21 22 22 22 21 21 20 20 19 18 18 18 19 19 19 18 16 17 19 21 22 22 22 23 24 24 24
27 25 24 22 21 21 21 20 20 20 20 21 20 21 21 21 20 19 19 18 18 18 18 18 19 19 20 20 17 16 19 21 22 23 23 23 22 21
25 24 23 22 22 22 22 22 21 20 20 20 19 20 20 19 19 18 17 17 17 17 17 18 19 19 18 17 16 16 18 20 21 21 21 22 23 20
27 25 24 23 23 23 24 23 22 21 21 20 20 19 19 18 17 17 17 16 16 16 16 16 16 17 17 18 17 18 18 19 20 20 22 22 23 24

GFSNE_sfc_30mbdewp_099.txt.gz
Dewpoint
60 60 59 59 58 58 57 55 53 50 49 47 44 42 44 45 44 46 45 47 46 46 45 45 44 43 43 42 41 40 39 39 39 39 39 38 38 38
60 59 59 57 56 56 56 55 54 52 48 45 43 41 41 42 42 43 42 42 43 43 42 41 40 39 38 38 37 37 37 37 37 37 36 36 36 36
55 57 55 53 52 52 52 52 52 51 49 40 41 40 40 40 40 40 39 39 38 37 36 35 35 35 35 35 35 35 35 34 33 33 35 35 35 34
51 51 50 48 49 48 48 47 48 48 46 42 39 38 40 39 39 38 35 33 32 31 32 33 33 33 33 32 33 32 32 32 33 34 34 35 35 34
47 47 46 46 46 45 46 45 45 43 44 42 38 38 36 36 35 32 31 29 25 28 28 28 29 30 30 30 31 31 30 32 33 34 34 34 34 34
44 44 44 44 44 43 42 42 41 40 41 40 37 35 34 32 33 31 29 27 26 22 22 22 25 25 27 29 29 29 30 32 33 32 32 34 34 34
41 40 40 40 41 40 39 37 38 37 37 37 36 34 32 30 29 28 26 24 23 21 21 20 20 23 24 26 27 28 29 29 30 32 33 33 33 33
38 38 37 37 37 36 35 34 35 37 37 36 34 33 30 29 26 24 22 21 19 22 22 21 23 24 24 24 26 27 29 30 31 32 33 32 32 32
37 36 35 35 33 33 33 32 32 31 30 29 28 22 24 23 26 24 23 22 22 24 24 22 24 22 24 22 25 27 29 31 31 32 31 31 31 31
34 33 33 33 34 31 27 27 26 26 26 24 26 25 27 26 28 27 26 26 24 24 24 24 24 23 25 25 27 26 31 31 32 31 30 31 30 30
29 30 30 28 28 27 27 24 26 27 28 28 28 27 27 26 25 26 25 24 24 22 24 23 26 26 26 26 26 26 29 29 31 31 31 29 30 29
27 28 27 27 27 24 20 19 18 22 23 24 27 24 26 29 29 26 28 27 26 25 26 25 25 25 25 27 25 25 25 25 26 26 28 28 28 29
27 27 28 28 25 22 17 14 13 19 21 18 17 19 21 25 24 24 27 27 25 25 25 26 25 24 24 25 26 27 27 27 26 27 27 27 27 27
24 24 26 25 25 26 21 23 20 21 21 19 17 18 20 23 25 26 26 27 26 26 28 28 24 24 23 22 23 26 27 28 27 27 27 28 28 28
22 23 26 24 22 23 20 22 25 24 20 18 19 21 24 27 27 27 27 27 27 26 26 27 26 25 25 23 23 23 24 26 26 27 28 27 26 27
21 22 24 23 22 20 19 21 22 21 20 22 21 24 26 25 26 24 23 23 23 23 27 27 27 25 23 23 23 23 23 23 26 26 27 26 26 27
23 24 22 20 19 18 17 18 18 17 19 19 22 24 25 25 23 23 24 23 23 22 23 27 27 26 25 23 22 22 23 24 26 27 27 24 25 26
22 19 16 14 13 14 13 13 14 16 19 23 23 24 24 24 24 23 23 23 22 21 22 24 25 24 22 22 25 23 24 25 26 26 25 25 24 24
22 16 14 14 13 13 13 15 18 18 23 24 25 25 25 25 23 23 23 22 21 20 21 22 23 21 18 16 19 24 24 24 24 24 24 24 23 24
26 23 20 18 18 18 18 19 21 23 23 24 25 25 25 24 23 23 22 22 21 21 20 21 21 21 19 17 18 18 20 19 20 20 21 22 23 24
27 26 24 24 22 23 23 23 24 24 23 23 23 24 24 24 23 22 22 21 21 20 19 20 21 22 22 20 18 16 18 21 21 22 23 22 21 20
26 27 27 26 26 25 25 25 24 23 23 23 23 23 23 23 22 22 21 20 20 20 20 20 21 20 20 19 16 17 17 19 21 21 22 22 22 19
27 27 26 26 26 26 25 25 24 24 24 23 23 22 22 22 21 21 20 20 19 19 18 18 18 19 19 19 18 18 18 18 20 20 21 22 22 24

GFSNE_sfc_30mbdewp_102.txt.gz
Dewpoint
60 60 60 59 59 58 56 56 54 50 49 46 44 43 44 44 45 45 46 48 48 48 47 46 45 45 44 43 42 41 40 40 39 39 39 39 39 38
60 60 60 59 59 58 57 56 55 52 49 45 43 41 42 43 42 43 44 44 45 44 43 42 41 40 39 39 38 38 38 37 37 37 36 36 36 36
57 58 58 56 56 55 55 55 54 53 50 42 41 40 40 40 40 40 40 40 38 39 38 37 37 37 36 36 37 36 35 35 34 33 35 35 36 35
53 53 53 52 51 51 51 51 50 50 48 44 40 39 40 41 40 38 36 34 33 34 34 34 35 35 34 33 33 32 32 32 32 34 34 35 35 35
49 49 49 49 48 48 48 47 47 47 46 42 39 38 37 38 36 33 30 29 27 31 30 29 30 31 31 31 31 31 31 30 32 33 34 34 34 34
45 46 46 46 46 46 45 45 43 43 42 41 37 35 34 34 34 30 28 29 26 22 23 23 24 26 27 29 30 30 30 31 33 33 32 33 34 34
42 41 41 43 44 43 42 40 40 40 39 37 35 33 31 30 30 30 29 27 24 22 20 21 22 24 25 28 29 28 30 30 30 31 33 34 34 34
39 38 39 39 39 39 39 38 38 37 37 36 34 33 32 30 27 26 24 21 19 23 22 21 23 23 25 24 28 29 29 30 32 33 33 33 32 32
38 37 36 37 35 35 36 35 35 34 34 34 33 31 27 26 25 23 22 22 21 24 23 21 24 22 25 26 28 27 28 31 32 32 33 31 31 32
36 35 35 34 34 31 29 26 26 27 26 26 25 26 27 28 26 25 24 24 24 24 24 21 25 23 26 26 29 27 30 32 32 32 31 31 32 31
33 33 32 32 33 30 26 25 25 27 29 29 29 28 27 26 25 25 23 22 23 23 24 23 26 25 26 26 27 26 27 30 31 31 31 30 30 31
28 31 30 29 29 28 24 24 24 25 27 28 26 27 29 28 28 26 26 23 25 22 25 23 24 24 21 26 26 25 24 27 27 28 28 28 29 29
29 28 28 29 25 20 19 17 18 23 23 21 19 20 26 24 24 26 27 25 24 24 25 24 23 24 23 23 24 25 26 27 26 27 29 28 28 29
27 27 29 29 27 22 21 21 20 22 20 19 18 19 21 24 24 26 26 26 26 26 28 24 22 23 23 22 21 24 24 24 25 26 27 27 29 29
24 26 28 26 24 26 22 25 23 22 20 18 18 19 22 24 25 25 25 25 24 24 25 25 23 23 23 23 22 23 23 23 25 24 25 27 26 26
24 25 28 25 23 22 20 22 25 24 20 19 19 23 26 26 24 24 23 23 23 22 25 25 24 24 22 22 24 22 22 22 23 24 25 27 26 26
23 23 24 23 22 21 18 19 22 20 20 20 22 24 24 23 23 24 23 22 22 21 22 26 27 26 25 23 22 22 22 22 23 24 27 24 24 25
24 22 21 21 19 18 17 17 18 18 18 19 20 23 24 23 23 21 22 23 21 21 21 23 26 25 24 23 24 22 22 22 23 24 24 23 22 23
22 20 19 17 16 16 16 15 14 16 18 19 22 22 23 23 24 22 21 21 21 21 21 20 22 21 18 16 17 20 23 22 23 22 23 22 21 22
25 23 19 17 17 15 15 15 16 17 18 20 22 23 23 23 23 22 22 21 21 20 19 19 21 20 19 16 15 17 20 18 17 17 18 21 22 23
28 27 25 23 20 19 19 18 18 19 20 20 22 23 23 23 23 22 22 23 22 20 20 19 19 22 22 21 20 19 18 18 20 20 20 21 21 21
28 27 27 25 24 23 22 22 21 23 23 22 22 22 23 23 23 22 22 21 21 20 20 19 19 19 18 17 17 16 16 18 20 21 21 22 21 19
30 28 27 28 27 26 25 24 24 23 23 23 23 23 23 22 23 22 22 21 20 20 20 19 19 19 18 18 18 18 18 18 19 19 20 22 23 23

GFSNE_sfc_30mbdewp_105.txt.gz
Dewpoint
61 60 60 60 59 59 57 56 55 52 50 48 45 44 44 44 46 47 47 49 50 50 50 48 48 47 46 46 44 43 42 41 40 40 40 40 39 39
60 60 59 59 59 59 58 57 56 55 52 47 43 42 43 43 45 44 45 46 47 46 46 45 44 43 42 41 40 40 40 39 39 37 36 37 37 36
56 57 57 58 58 57 56 56 55 54 52 42 41 40 41 41 41 42 42 40 41 42 41 40 39 39 39 38 39 38 37 36 34 34 35 35 36 35
51 51 52 53 54 54 54 54 54 52 50 46 40 40 40 40 40 38 36 37 34 36 37 36 37 37 37 36 35 34 33 33 33 33 34 35 35 35
49 50 50 50 50 50 51 50 50 49 47 44 40 39 38 39 38 34 30 29 29 34 35 35 34 33 33 32 32 32 31 31 32 33 34 34 34 34
46 47 47 48 48 48 48 48 47 47 45 43 39 37 35 36 35 32 29 29 26 25 25 25 26 27 28 29 31 31 31 30 32 33 33 33 34 35
42 42 42 44 46 46 46 45 44 43 42 40 36 34 32 32 33 31 30 28 25 23 21 20 23 24 25 29 29 29 30 30 31 31 33 34 34 34
41 39 40 41 42 42 42 42 42 41 40 38 35 34 32 31 31 29 26 23 22 23 21 19 23 22 24 25 27 30 30 30 31 33 33 34 34 33
39 38 37 38 38 38 39 39 39 39 38 36 35 34 32 30 28 25 23 22 20 24 22 18 25 22 24 27 30 29 29 29 31 33 33 33 32 32
38 37 36 35 34 34 31 29 28 27 27 29 31 28 27 27 26 25 23 24 24 24 24 15 25 23 26 26 29 28 28 32 33 33 33 32 32 33
35 35 35 34 35 32 27 26 27 29 31 30 29 30 30 29 28 25 23 20 21 23 24 22 25 25 26 26 27 28 27 29 32 32 32 31 30 31
31 34 34 33 35 31 26 24 22 26 29 28 28 29 29 29 28 24 24 19 23 21 25 23 24 23 20 25 26 26 25 28 28 28 29 29 30 30
30 30 32 33 33 30 26 24 22 25 27 22 20 25 26 26 25 27 26 24 24 24 26 23 22 23 23 22 23 25 25 26 27 27 28 29 29 30
30 30 29 32 27 22 21 20 22 25 22 19 19 20 24 23 25 26 26 25 25 25 26 21 21 22 21 21 20 23 23 24 25 25 25 26 29 27
27 28 31 30 29 24 23 23 24 22 20 19 18 20 22 24 25 24 24 23 22 23 26 24 23 21 21 20 20 22 23 23 24 24 24 24 24 26
27 29 29 28 26 25 22 24 25 23 21 19 19 21 24 24 23 22 22 22 22 23 25 25 25 24 22 22 22 22 22 21 22 23 23 24 26 27
24 26 28 25 23 22 21 19 23 25 23 21 21 23 25 24 24 23 21 21 21 21 21 24 27 24 24 23 22 21 21 22 23 22 22 23 25 24
24 22 24 25 23 22 20 18 19 22 21 20 22 24 24 23 22 21 21 20 20 20 20 21 23 25 24 23 26 22 21 22 22 22 22 22 22 23
24 22 21 23 24 23 21 20 18 20 21 19 19 21 23 23 24 21 21 21 20 20 19 20 21 22 19 16 17 22 22 21 23 22 20 19 18 19
25 25 24 23 20 19 19 19 19 18 17 18 19 20 21 22 22 22 22 21 20 20 19 19 19 20 19 17 15 17 22 18 18 17 17 18 20 22
28 26 26 23 21 20 19 19 18 17 17 18 19 20 21 22 22 23 22 23 23 21 20 20 20 22 21 21 20 20 20 22 20 18 18 19 19 20
31 30 29 27 26 24 22 21 20 20 21 20 19 20 22 22 23 23 23 22 22 23 22 21 19 19 20 21 20 19 17 18 20 20 21 22 21 18
31 31 31 29 28 27 26 24 23 22 22 22 22 21 22 22 22 23 22 22 22 21 21 20 19 19 19 19 19 19 18 18 18 19 20 21 22 23

GFSNE_sfc_30mbdewp_108.txt.gz
Dewpoint
59 60 59 59 60 59 58 56 54 53 51 50 46 44 45 44 47 47 48 51 51 51 50 50 49 50 49 50 48 47 45 44 42 41 41 40 40 39
60 60 60 59 59 58 58 57 57 56 54 48 45 43 44 44 46 45 46 47 48 48 47 46 46 45 44 43 43 42 42 41 40 39 37 37 37 37
56 56 56 56 56 57 57 57 56 55 54 44 42 41 42 42 43 44 43 43 43 44 43 42 42 41 41 40 41 40 40 38 37 35 36 36 36 36
50 50 50 51 52 53 54 54 54 54 53 49 41 41 41 41 41 40 40 37 36 39 39 39 38 39 39 39 38 37 35 34 34 34 34 34 35 35
48 48 48 50 50 50 51 51 51 51 50 46 41 40 39 40 39 35 32 31 30 36 37 37 37 37 35 35 34 33 32 31 32 33 33 34 34 35
45 45 46 46 47 48 48 49 49 49 47 44 41 38 38 39 38 34 31 29 27 28 28 28 29 29 30 31 32 32 32 31 31 32 33 33 34 35
43 43 42 43 44 46 46 47 46 45 44 42 39 36 35 36 36 33 32 29 26 24 22 21 24 23 25 29 29 30 31 30 31 33 33 34 34 35
41 40 40 41 41 43 44 44 44 44 42 40 37 37 35 34 33 31 29 26 26 23 21 19 23 21 23 24 28 30 30 30 30 31 33 34 34 34
39 39 39 38 39 40 40 40 40 40 41 39 38 36 35 33 31 29 26 24 22 23 21 17 24 22 24 25 30 31 30 30 30 32 33 34 34 33
38 38 37 36 35 36 33 31 31 29 30 33 35 34 32 31 30 28 25 24 24 24 23 14 25 23 25 26 31 29 28 30 33 33 33 34 32 33
35 35 35 35 37 34 30 29 29 30 33 32 31 32 31 30 28 25 23 22 20 22 24 21 24 25 25 26 27 30 28 28 32 32 33 32 32 31
33 34 36 35 37 34 27 26 26 28 29 29 29 29 29 30 29 24 24 19 21 20 24 22 24 23 21 24 26 26 26 28 30 31 30 30 30 30
31 31 33 35 36 34 30 25 23 27 28 24 25 26 27 25 26 27 24 22 21 22 25 22 21 22 21 22 23 25 25 24 25 26 28 29 30 30
31 31 30 35 35 32 27 25 25 27 24 19 19 23 24 23 26 26 26 26 25 24 26 21 21 21 19 20 20 22 22 23 24 24 24 27 27 27
30 30 31 32 30 26 25 22 25 23 21 19 18 20 24 24 25 24 23 23 23 26 25 22 21 20 20 19 20 21 22 22 23 23 23 23 23 25
29 29 31 32 31 28 25 25 24 22 20 19 19 21 23 24 24 22 22 22 21 22 24 23 23 23 22 22 22 21 22 21 21 22 22 22 23 25
27 27 29 28 26 25 23 21 24 25 23 21 21 22 23 24 23 22 21 21 20 20 21 25 27 25 23 22 21 21 21 21 22 23 21 21 22 24
28 23 25 27 25 24 22 20 19 23 25 24 22 22 23 24 23 22 21 20 20 20 21 21 22 24 23 21 25 22 21 21 22 22 21 21 21 22
28 23 21 24 25 25 24 22 21 20 23 23 22 22 23 23 24 21 21 21 20 19 19 19 20 21 19 17 18 24 23 21 21 22 22 21 18 18
31 26 24 22 23 24 25 24 24 22 21 21 21 20 21 22 22 22 21 21 21 20 19 19 19 20 20 17 15 16 24 19 19 18 18 18 19 21
32 30 29 27 25 24 23 23 23 21 21 21 20 20 20 20 21 22 22 23 23 21 20 20 20 22 22 21 20 20 20 22 21 19 18 18 19 20
32 31 31 30 29 25 24 23 22 21 21 21 19 20 20 21 21 22 23 22 24 24 22 22 20 21 21 21 20 20 20 19 20 21 21 21 19 18
32 32 32 31 31 30 28 26 25 24 22 22 21 20 21 20 21 22 23 23 22 22 23 23 21 19 20 20 20 20 20 19 19 19 20 21 22 23

GFSNE_sfc_30mbdewp_111.txt.gz
Dewpoint
58 58 58 59 59 59 59 58 55 52 51 51 49 44 45 45 47 48 50 52 52 52 51 51 51 51 51 51 51 51 49 47 44 43 42 41 41 40
58 59 59 59 59 59 58 58 57 55 53 51 47 44 44 44 47 47 48 49 49 49 48 47 47 47 47 47 47 46 45 43 43 42 40 38 38 38
55 54 54 54 53 54 55 55 55 55 53 48 44 42 43 43 45 45 44 44 45 45 45 44 43 43 43 43 43 43 42 41 39 38 38 37 37 36
50 50 49 49 50 51 51 51 52 53 53 51 43 41 42 42 43 43 41 39 39 41 41 41 40 40 41 41 41 40 38 37 36 36 35 34 34 35
47 47 46 46 47 48 49 49 50 51 51 48 44 41 40 41 40 36 36 33 33 38 39 39 40 40 39 38 37 36 34 34 34 34 33 33 34 35
44 44 44 44 44 45 46 47 48 48 48 46 42 39 39 40 39 36 33 31 30 30 32 32 34 35 34 34 34 34 33 31 31 32 33 34 34 35
42 42 41 41 43 44 45 45 46 46 45 44 40 38 37 37 38 36 34 30 27 25 24 23 26 25 26 30 29 33 33 32 31 33 34 34 35 35
40 39 39 40 40 42 43 43 44 43 43 41 40 40 37 37 36 34 32 30 31 24 22 21 22 21 22 23 28 30 30 30 31 32 33 34 35 35
38 38 39 38 38 38 37 37 37 38 41 41 40 39 38 36 35 32 30 27 26 23 21 20 24 21 24 24 29 30 31 31 31 32 34 34 35 34
38 38 37 37 36 36 34 33 32 33 33 32 36 37 36 35 34 33 29 25 24 24 22 16 25 22 25 26 32 31 30 29 31 32 33 34 34 33
36 36 35 35 36 36 32 30 30 31 34 34 34 34 34 33 30 28 26 25 23 22 24 19 24 24 25 25 26 31 29 29 31 33 33 34 33 32
33 34 36 35 36 37 30 27 27 29 30 30 28 29 30 31 29 26 25 24 21 19 24 21 24 23 22 24 26 26 26 30 31 32 32 31 31 30
32 32 33 35 36 37 33 26 25 27 29 26 26 27 25 25 26 25 24 22 19 20 25 23 22 22 20 23 23 25 25 25 25 26 28 29 30 30
32 32 31 33 36 36 33 30 28 29 24 20 21 23 24 24 26 26 26 26 25 24 27 22 21 21 19 20 20 22 22 23 24 24 24 27 26 27
32 31 32 32 35 33 28 26 24 26 23 19 18 19 24 24 25 24 24 24 25 25 23 21 21 18 19 18 19 21 21 22 23 22 23 23 22 23
33 31 31 32 32 30 28 25 24 24 21 19 19 21 24 24 23 23 23 22 21 22 24 22 21 21 21 20 20 20 21 20 21 21 22 22 22 23
31 28 28 29 29 29 26 23 23 24 24 22 21 21 22 24 24 22 22 21 20 20 22 24 25 24 23 21 21 21 20 21 22 22 22 20 21 22
33 27 27 26 27 27 25 23 21 21 25 24 22 22 23 23 23 22 21 21 21 20 21 22 23 24 23 22 24 20 20 20 21 22 21 21 20 21
34 29 26 24 25 26 25 24 22 21 22 24 25 23 23 23 25 23 22 22 21 20 20 19 20 21 18 15 18 25 22 21 22 22 22 22 21 20
34 32 27 25 24 24 25 25 25 24 23 22 23 23 23 23 23 23 22 21 21 21 20 19 19 20 19 17 15 18 25 22 21 20 19 20 20 20
33 33 31 29 29 26 24 24 24 23 23 21 21 21 21 21 21 22 22 23 22 21 20 20 20 22 22 21 20 20 20 25 21 18 18 18 18 20
33 33 32 31 30 29 28 27 25 24 24 24 22 21 21 20 20 20 21 21 23 24 22 21 21 23 22 21 19 19 20 20 23 24 24 22 17 15
33 33 32 32 32 31 30 28 28 26 24 24 23 23 22 21 21 21 21 22 21 22 24 23 21 20 21 22 21 21 21 20 19 19 20 21 22 23

GFSNE_sfc_30mbdewp_114.txt.gz
Dewpoint
58 58 58 58 59 59 58 58 55 52 52 52 51 46 46 46 47 48 51 53 53 53 53 53 53 53 53 53 52 52 50 49 47 45 44 43 43 42
58 58 58 57 57 57 57 57 57 55 53 52 49 45 45 45 47 48 49 51 50 50 49 49 49 49 50 50 50 49 48 47 45 44 43 41 40 40
53 52 51 50 50 51 51 51 52 54 52 51 46 43 44 44 46 46 46 46 47 47 47 46 45 45 45 45 46 46 45 44 42 41 41 40 39 38
50 48 47 48 47 48 49 49 50 51 51 50 46 44 43 43 44 44 42 41 41 44 44 43 43 43 43 43 43 42 41 40 39 39 37 36 36 36
46 45 45 44 44 45 46 46 48 49 49 49 47 42 41 42 41 39 39 35 35 40 41 40 41 42 42 42 40 39 37 36 36 36 34 33 34 35
43 43 43 43 43 43 44 44 45 46 47 46 44 41 40 41 40 37 36 33 32 33 36 38 39 39 39 38 37 36 34 33 33 33 33 34 35 35
40 40 40 41 41 43 43 43 44 44 44 44 42 40 38 38 38 37 36 33 31 29 27 27 29 28 29 32 33 35 34 32 31 32 33 34 34 35
39 39 39 39 40 41 42 42 43 42 41 41 40 40 39 39 38 36 34 32 33 27 26 23 23 23 22 24 29 32 33 32 31 32 34 34 35 35
38 38 38 38 37 37 37 36 35 37 37 39 39 39 39 38 37 35 34 33 33 25 23 22 23 20 23 24 29 30 30 31 31 32 33 35 35 35
38 38 37 37 36 37 34 33 32 33 35 34 34 36 36 37 37 36 33 28 25 24 22 23 24 21 25 25 33 31 32 31 31 32 33 34 35 35
35 35 36 35 36 37 33 31 30 31 33 36 36 36 36 35 33 31 30 28 25 23 23 19 24 23 25 25 27 33 31 30 31 33 34 34 35 33
34 34 36 36 36 38 33 30 28 28 30 29 28 29 30 31 29 27 29 28 25 24 24 20 23 24 22 25 26 27 28 30 31 31 32 32 33 30
33 33 33 35 37 38 35 29 26 26 29 26 26 27 25 26 26 25 25 24 21 18 25 22 23 23 21 24 24 25 26 26 27 28 31 31 31 31
33 32 32 33 34 37 36 33 30 29 25 21 21 22 24 24 26 26 26 25 25 23 27 23 22 22 20 22 23 23 23 23 24 25 24 27 28 29
35 33 33 33 33 36 34 28 26 27 25 21 19 19 23 24 24 23 24 25 25 26 24 22 22 19 19 18 19 21 22 23 23 22 22 23 23 23
38 35 32 32 33 33 31 26 25 25 24 21 19 21 24 24 23 22 22 21 22 23 25 22 22 21 20 20 19 20 21 20 21 21 22 22 23 23
35 30 29 29 30 30 29 26 24 24 24 22 21 20 21 23 23 22 22 21 20 20 22 24 24 22 22 21 20 20 20 20 21 21 22 21 21 22
35 31 29 29 28 27 27 26 24 23 23 24 23 22 21 22 22 22 21 21 21 20 20 23 25 24 23 22 24 20 19 20 20 22 22 20 19 20
35 32 30 29 28 27 26 25 24 23 22 23 24 23 23 23 24 22 22 22 21 21 20 20 20 20 18 13 18 25 21 20 21 22 21 21 20 20
35 33 32 30 28 29 27 25 24 24 23 23 23 23 23 23 23 23 23 22 22 22 20 19 19 20 19 16 15 17 26 21 21 20 20 22 22 22
34 34 33 31 30 30 29 28 26 25 24 24 23 23 23 23 22 23 22 23 23 22 21 20 20 21 22 21 19 19 20 26 23 20 19 18 18 19
34 34 33 33 32 31 30 29 28 27 27 25 24 23 22 21 21 21 22 21 22 24 22 22 21 23 22 21 19 19 19 21 24 25 22 20 17 12
33 34 33 33 32 32 31 30 28 28 27 27 26 24 24 22 21 21 20 21 20 21 23 23 21 22 22 22 21 21 21 20 20 19 21 25 26 26

GFSNE_sfc_30mbdewp_117.txt.gz
Dewpoint
58 58 58 58 58 59 58 57 55 51 52 53 53 49 49 49 48 48 49 54 54 55 55 55 54 54 54 55 55 55 53 52 50 48 46 45 45 45
58 58 57 55 54 54 54 55 56 55 53 53 52 48 47 47 47 48 50 52 52 52 51 52 52 52 52 52 51 50 49 48 47 46 45 44 43 43
54 53 51 50 50 50 51 51 51 51 51 51 49 46 46 46 47 47 49 48 49 49 49 48 48 48 49 50 50 49 48 48 48 45 43 42 42 41
49 48 47 47 47 47 48 48 49 50 49 47 49 46 45 45 46 46 45 43 44 47 46 46 45 45 45 46 46 45 45 44 42 42 41 41 40 38
46 45 44 44 44 45 45 45 46 47 48 48 48 44 43 43 43 43 42 39 38 43 44 44 43 43 44 44 43 42 40 39 40 38 37 36 36 37
44 43 43 43 42 43 43 44 45 44 45 46 45 44 42 42 41 39 38 36 35 36 40 41 43 43 42 42 40 39 38 37 37 36 34 34 35 35
41 41 41 41 41 43 43 43 42 42 42 42 42 41 40 39 39 39 39 35 33 32 33 33 35 34 35 38 38 36 35 34 33 34 34 34 35 36
40 39 40 39 40 42 41 41 41 41 41 41 40 40 40 40 39 38 36 35 35 31 31 29 27 29 27 30 32 36 36 34 32 32 34 34 35 36
39 38 39 38 37 37 37 36 36 37 37 38 39 39 39 39 38 37 35 35 35 29 27 28 24 24 24 22 27 31 33 33 32 32 34 35 36 35
38 38 37 37 37 37 35 34 33 33 36 35 35 35 36 36 38 37 35 32 28 26 25 28 24 23 24 24 30 31 32 31 32 32 33 35 35 35
36 36 36 36 36 38 35 34 32 32 33 34 34 36 36 36 35 33 33 32 30 27 24 21 24 23 25 25 27 34 32 33 32 32 33 34 35 35
35 35 36 37 37 38 35 32 31 29 30 30 28 28 28 29 30 28 32 32 28 28 25 21 23 25 23 26 27 30 32 31 31 31 33 34 35 33
34 34 34 35 37 37 37 32 30 26 29 27 26 27 26 26 26 26 26 27 27 25 25 25 26 25 25 26 26 28 28 30 31 31 32 32 33 32
34 33 33 34 35 36 37 35 33 30 26 23 21 22 23 24 26 26 26 27 27 26 28 26 25 26 25 25 25 26 26 26 27 29 29 30 31 32
36 35 34 34 34 35 37 35 29 28 27 23 21 22 24 26 26 26 27 26 27 27 26 24 25 24 25 25 24 24 25 25 26 27 26 27 28 27
39 37 36 33 34 33 34 29 26 26 26 25 24 23 25 25 25 25 24 25 25 26 26 25 24 24 23 23 23 23 25 24 25 25 25 25 25 24
36 33 31 31 31 31 31 29 26 25 26 24 23 23 23 24 24 24 24 23 23 23 24 25 25 25 25 24 23 23 24 23 24 25 24 24 24 25
35 33 32 30 30 29 28 28 27 26 25 25 25 24 24 23 23 24 24 24 23 23 22 24 25 25 24 24 25 23 23 23 23 24 24 22 21 23
36 34 32 31 30 29 29 27 26 26 26 25 25 25 25 24 24 24 23 23 23 23 24 24 24 23 20 18 20 26 23 23 23 23 23 22 21 22
36 35 33 33 31 30 30 30 28 27 25 25 25 25 25 24 24 25 24 23 23 23 23 23 22 22 20 18 18 21 26 24 22 22 22 23 23 23
35 34 34 34 32 31 31 31 30 29 28 25 25 25 25 25 24 24 24 24 24 23 22 23 23 23 24 23 20 20 21 26 24 23 23 21 19 19
34 34 34 34 33 32 32 31 30 29 29 29 27 26 25 24 23 23 23 23 23 25 24 24 24 24 23 21 20 20 20 22 25 26 24 21 20 16
33 33 33 33 33 33 32 31 30 30 29 29 28 28 26 25 24 22 22 22 22 22 24 24 23 23 23 22 22 22 21 21 21 21 25 26 25 24

GFSNE_sfc_30mbdewp_120.txt.gz
Dewpoint
60 59 58 58 59 59 58 57 55 51 52 54 54 52 51 51 51 50 49 51 55 56 57 56 55 56 56 56 57 56 54 53 51 50 48 48 48 47
59 57 57 56 55 55 55 55 55 55 52 55 55 52 51 50 50 49 49 52 53 53 53 53 53 53 53 53 54 53 52 51 50 49 49 48 47 46
57 55 53 52 52 51 52 51 51 51 51 52 52 50 49 49 48 49 49 51 51 51 51 51 51 51 52 52 51 50 49 49 48 48 46 45 45 44
52 52 50 49 48 48 48 48 49 49 48 46 47 48 48 48 48 48 48 46 47 48 49 48 48 47 48 49 50 50 49 49 48 47 46 45 43 42
50 48 46 45 44 45 45 45 45 46 47 46 46 47 47 46 45 45 45 43 41 44 46 46 46 46 46 47 46 45 44 43 44 43 42 42 41 40
46 45 44 43 43 43 43 43 43 43 43 44 43 44 44 44 44 42 41 39 38 37 42 42 44 45 46 45 43 41 40 41 41 39 37 36 38 37
43 42 43 42 42 43 43 42 42 42 42 42 41 42 42 41 41 42 40 38 36 35 37 38 39 41 42 43 41 39 38 38 38 37 35 35 36 36
41 41 41 40 41 43 42 41 41 41 40 40 40 40 41 41 40 39 38 36 37 35 34 35 34 35 34 35 37 37 36 35 34 34 35 34 35 36
41 41 40 39 39 39 39 38 37 37 37 38 39 40 39 40 38 37 36 36 37 32 33 32 28 29 29 25 31 35 37 36 35 33 34 35 35 36
40 40 39 39 38 38 37 37 36 35 37 36 37 37 37 38 38 37 36 35 31 29 29 32 27 28 26 25 28 30 32 33 33 33 33 35 36 36
38 38 38 38 38 39 37 37 35 34 36 34 34 35 35 35 36 35 34 33 33 30 29 28 27 26 25 26 26 33 34 32 33 33 33 35 35 36
37 37 37 38 37 38 37 36 35 33 32 31 31 30 28 28 29 30 35 33 32 31 28 26 25 26 24 27 27 30 32 33 33 33 33 34 35 35
36 36 36 37 38 38 38 37 34 29 28 29 27 26 26 26 26 27 28 31 30 29 27 27 27 26 28 27 27 30 32 32 32 32 32 33 34 35
36 35 35 35 36 36 37 37 35 31 28 25 23 21 22 24 27 27 27 28 29 28 29 30 28 31 30 28 26 28 30 30 30 31 32 33 34 35
38 37 35 35 35 35 37 37 35 32 29 26 24 24 25 28 30 29 30 30 30 30 30 27 30 30 30 30 29 27 28 29 29 30 31 31 32 32
39 39 38 36 35 34 35 35 32 28 27 27 27 26 26 28 28 28 28 29 28 29 29 28 29 28 28 27 27 26 28 28 29 29 30 29 29 29
39 37 35 34 33 33 33 32 28 27 27 26 26 26 26 26 27 28 28 27 26 25 26 28 27 28 28 28 26 26 27 27 27 28 27 27 27 27
36 34 34 33 32 31 31 31 30 28 28 28 27 27 27 27 27 27 27 26 25 25 25 26 26 25 25 25 27 26 26 26 27 27 27 26 26 27
36 35 34 33 32 31 31 31 30 29 30 30 30 30 29 29 27 27 26 25 24 24 25 26 25 24 22 19 23 27 26 25 25 25 25 24 24 25
37 36 35 34 33 32 32 32 32 31 30 30 30 30 30 29 27 26 26 25 24 24 25 26 25 25 23 22 23 24 27 26 25 24 24 25 25 24
36 36 35 35 34 33 33 32 32 32 31 31 29 29 29 28 27 26 26 25 25 25 24 24 26 26 27 25 21 20 23 26 26 26 25 23 21 20
35 35 35 35 34 33 33 32 32 31 31 31 30 30 30 29 27 25 24 24 24 26 26 27 28 26 25 23 21 21 22 24 26 26 26 25 24 21
33 33 33 34 34 33 33 32 31 31 31 31 31 31 30 29 29 27 25 24 24 24 25 25 26 25 24 24 23 23 23 23 22 22 26 27 27 25

GFSNE_sfc_30mbdewp_123.txt.gz
Dewpoint
61 59 59 59 59 59 59 58 55 51 52 55 56 54 53 53 53 52 51 51 52 55 57 57 56 56 56 56 57 56 55 54 54 54 52 51 50 49
60 59 59 58 57 57 57 56 56 55 52 55 55 54 53 51 51 49 50 50 52 53 53 54 54 54 54 56 55 54 53 52 51 50 50 49 49 50
58 58 56 56 55 53 53 53 52 53 52 53 53 52 51 50 50 50 50 50 52 52 52 51 51 52 52 52 52 52 51 51 50 50 50 50 50 48
55 54 52 51 51 49 49 49 49 49 49 47 47 47 48 49 48 48 48 47 47 47 49 49 49 49 49 51 51 51 50 50 49 48 48 48 47 46
53 52 50 48 47 47 46 45 46 45 45 45 44 45 46 46 46 46 45 45 42 43 47 47 47 47 47 48 50 50 50 49 48 47 46 46 45 43
50 49 46 45 44 45 44 43 43 43 43 43 44 43 43 44 44 43 43 42 41 38 42 43 45 45 46 47 45 44 43 44 43 42 40 39 41 41
45 44 44 43 43 44 43 43 42 42 42 42 41 40 41 41 41 42 40 39 38 37 38 39 42 44 45 45 43 42 41 42 41 39 38 37 38 39
43 42 41 41 42 43 42 41 41 41 41 41 39 39 38 40 41 39 38 37 37 36 35 36 37 39 39 39 42 41 41 39 39 38 36 36 36 37
42 42 41 40 41 41 40 39 38 38 38 38 39 38 38 39 39 37 37 36 36 35 34 34 34 36 36 33 36 38 38 37 35 34 35 35 35 36
42 41 40 39 40 39 38 38 38 37 38 38 37 37 37 37 37 38 36 35 33 32 31 33 30 30 30 31 34 36 36 38 37 35 34 35 36 36
40 40 40 39 39 39 38 38 37 36 36 35 34 35 35 34 34 36 35 34 34 32 30 31 29 29 29 29 29 31 33 31 33 34 34 34 36 37
38 38 38 38 39 40 38 37 36 35 33 32 32 32 30 28 28 30 32 33 33 33 30 30 27 28 26 28 28 28 31 33 33 33 33 34 36 36
37 37 37 39 38 38 39 38 36 31 30 31 29 28 28 26 27 27 28 31 32 31 28 29 28 27 28 28 27 29 32 34 34 34 33 34 36 36
37 37 37 38 38 38 38 38 37 33 30 28 26 24 24 26 29 29 29 29 30 30 31 31 28 31 30 29 28 29 31 32 32 32 32 33 33 34
38 37 37 36 36 36 36 37 38 36 32 28 27 26 27 30 29 29 30 30 29 29 29 28 29 31 31 29 30 28 29 30 30 31 32 32 33 35
39 39 37 36 36 35 35 37 36 32 30 29 29 29 29 29 28 30 29 30 28 29 29 28 28 29 28 29 29 28 29 28 31 31 32 31 32 32
40 39 38 36 35 34 34 34 32 29 28 28 27 28 28 28 28 30 29 28 27 27 27 28 28 29 29 29 27 27 28 29 29 29 30 29 29 30
38 36 35 35 34 33 33 32 32 31 29 28 29 29 29 28 28 29 28 27 26 26 26 27 26 26 27 27 27 27 28 28 29 29 28 27 27 29
36 35 35 35 34 33 32 32 31 31 31 30 29 30 30 30 29 28 28 27 26 26 26 27 26 25 23 22 26 28 26 27 28 27 27 27 25 27
37 36 36 35 34 34 33 32 32 32 31 31 30 31 31 30 29 28 28 27 26 26 26 27 26 26 24 24 24 26 28 27 26 25 26 27 27 27
36 36 36 36 35 35 34 33 33 32 32 31 31 31 31 30 29 28 28 27 27 26 25 26 27 28 28 26 23 21 24 28 28 26 27 26 24 23
36 36 36 35 35 35 34 33 32 32 32 31 31 31 31 30 29 29 29 27 26 26 26 27 28 27 27 24 22 22 23 25 27 27 27 26 24 19
35 34 34 34 34 34 33 32 32 32 32 31 31 31 31 30 30 30 30 29 27 26 26 27 28 27 26 25 23 23 24 24 24 24 26 27 27 27